AT784 Weather Reports


time (UTC)temp
C
wind
direction
speed
KPH
gust
KPH
rain 1hr
cm
rain 24hr
cm
rain mn
cm
humidity
%
barometer
mb
20260509162106 11 156 3.2 9.7 0.00 0.00 0.00 81 1002.6
20260509162006 11 167 1.6 9.7 0.00 0.00 0.00 81 1002.6
20260509161906 11 160 1.6 9.7 0.00 0.00 0.00 82 1002.6
20260509161827 10 151 1.6 9.7 0.00 0.00 0.00 81 1002.6
20260509161706 10 166 1.6 9.7 0.00 0.00 0.00 81 1002.6
20260509161606 10 198 1.6 9.7 0.00 0.00 0.00 82 1003.0
20260509161506 10 219 1.6 9.7 0.00 0.00 0.00 81 1003.1
20260509161406 10 237 1.6 9.7 0.00 0.00 0.00 81 1003.1
20260509161306 10 237 1.6 9.7 0.00 0.00 0.00 80 1003.2
20260509161207 10 240 1.6 9.7 0.00 0.00 0.00 79 1003.2
20260509161106 10 246 1.6 6.4 0.00 0.00 0.00 78 1003.2
20260509161006 10 250 1.6 8.0 0.00 0.00 0.00 78 1003.0
20260509160906 10 248 1.6 8.0 0.00 0.00 0.00 78 1003.0
20260509160806 10 248 3.2 8.0 0.00 0.00 0.00 78 1003.0
20260509160706 10 250 3.2 8.0 0.00 0.00 0.00 78 1003.0
20260509160606 10 251 3.2 8.0 0.00 0.00 0.00 77 1003.0
20260509160506 10 252 3.2 8.0 0.00 0.00 0.00 78 1002.8
20260509160427 10 249 3.2 8.0 0.00 0.00 0.00 78 1002.8
20260509160327 10 249 3.2 8.0 0.00 0.00 0.00 79 1003.3
20260509160206 10 254 3.2 8.0 0.00 0.00 0.00 79 1003.4
20260509160106 10 255 3.2 8.0 0.00 0.00 0.00 78 1003.4
20260509160006 10 253 3.2 8.0 0.00 0.00 0.00 79 1003.3
20260509155906 10 251 3.2 8.0 0.00 0.00 0.00 79 1003.3
20260509155806 10 251 3.2 8.0 0.00 0.00 0.00 79 1003.0
20260509155706 10 247 3.2 6.4 0.00 0.00 0.00 78 1003.0
20260509155606 10 246 3.2 6.4 0.00 0.00 0.00 78 1003.0
20260509155506 10 246 3.2 6.4 0.00 0.00 0.00 78 1003.0
20260509155406 10 246 3.2 6.4 0.00 0.00 0.00 78 1003.0
20260509155306 10 250 3.2 9.7 0.00 0.00 0.00 79 1002.9
20260509155206 10 248 3.2 9.7 0.00 0.00 0.00 80 1003.0
20260509155106 10 245 3.2 9.7 0.00 0.00 0.00 80 1003.0
20260509155006 10 246 3.2 9.7 0.00 0.00 0.00 80 1003.2
20260509154927 10 248 3.2 9.7 0.00 0.00 0.00 80 1003.2
20260509154806 10 251 3.2 9.7 0.00 0.00 0.00 80 1003.2
20260509154707 10 257 3.2 9.7 0.00 0.00 0.00 80 1003.0
20260509154627 10 259 3.2 9.7 0.00 0.00 0.00 80 1003.0
20260509154506 10 260 3.2 11.3 0.00 0.00 0.00 80 1003.0
20260509154406 10 260 4.8 12.9 0.00 0.00 0.00 81 1003.0
20260509154306 10 261 3.2 12.9 0.00 0.00 0.00 81 1003.0
20260509154206 10 263 3.2 12.9 0.00 0.00 0.00 81 1003.0
20260509154127 10 264 3.2 12.9 0.00 0.00 0.00 81 1003.0
20260509154006 10 264 3.2 12.9 0.00 0.00 0.00 82 1003.1
20260509153927 10 263 3.2 12.9 0.00 0.00 0.00 82 1003.1
20260509153806 10 264 3.2 12.9 0.00 0.00 0.00 81 1003.1
20260509153706 10 260 4.8 12.9 0.00 0.00 0.00 82 1003.2
20260509153606 10 257 4.8 14.5 0.00 0.00 0.00 82 1003.2
20260509153506 10 254 3.2 14.5 0.00 0.00 0.00 83 1003.1
20260509153406 10 254 3.2 14.5 0.00 0.00 0.00 84 1003.0
20260509153306 10 251 3.2 14.5 0.00 0.00 0.00 84 1003.0
20260509153206 10 250 3.2 14.5 0.00 0.00 0.00 84 1002.9
20260509153106 10 249 4.8 14.5 0.00 0.00 0.00 85 1002.9
20260509153006 10 250 4.8 16.1 0.00 0.00 0.00 85 1002.9
20260509152906 10 252 4.8 16.1 0.00 0.00 0.00 85 1002.9
20260509152806 10 253 6.4 16.1 0.00 0.00 0.00 85 1002.9
20260509152706 10 254 6.4 16.1 0.00 0.00 0.00 85 1002.9
20260509152627 10 254 6.4 17.7 0.00 0.00 0.00 86 1002.9
20260509152506 10 254 6.4 17.7 0.00 0.00 0.00 86 1002.9
20260509152406 10 255 6.4 17.7 0.00 0.00 0.00 86 1002.9
20260509152307 10 257 6.4 17.7 0.00 0.00 0.00 86 1002.9
20260509152206 10 257 8.0 17.7 0.00 0.00 0.00 86 1002.8
20260509152106 10 255 6.4 17.7 0.00 0.00 0.00 86 1002.8
20260509152006 10 256 6.4 17.7 0.00 0.00 0.00 86 1002.8
20260509151927 10 256 6.4 17.7 0.00 0.00 0.00 86 1002.6
20260509151827 10 254 8.0 22.5 0.00 0.00 0.00 86 1002.6
20260509151706 10 254 8.0 22.5 0.00 0.00 0.00 87 1002.7
20260509151606 10 256 8.0 24.1 0.00 0.00 0.00 86 1002.6
20260509151506 10 258 8.0 24.1 0.00 0.00 0.00 87 1002.6
20260509151407 10 257 8.0 24.1 0.00 0.00 0.00 86 1002.6
20260509151306 10 255 9.7 24.1 0.00 0.00 0.00 86 1002.7
20260509151227 10 256 9.7 24.1 0.00 0.00 0.00 86 1002.7
20260509151106 10 257 9.7 24.1 0.00 0.00 0.00 86 1002.5
20260509151006 10 259 9.7 24.1 0.00 0.00 0.00 86 1002.5
20260509150906 10 258 8.0 24.1 0.00 0.00 0.00 86 1002.5
20260509150806 10 259 8.0 24.1 0.00 0.00 0.00 86 1002.5
20260509150706 10 258 8.0 24.1 0.00 0.00 0.00 85 1002.5
20260509150606 10 259 8.0 24.1 0.00 0.00 0.00 86 1002.5
20260509150506 10 256 9.7 24.1 0.00 0.00 0.00 85 1002.5
20260509150406 10 257 9.7 24.1 0.00 0.00 0.00 85 1002.6
20260509150306 10 256 8.0 22.5 0.00 0.00 0.00 85 1002.5
20260509150206 11 255 8.0 22.5 0.00 0.00 0.00 85 1002.5
20260509150106 11 256 9.7 22.5 0.00 0.00 0.00 85 1002.4
20260509150006 11 254 9.7 22.5 0.00 0.00 0.00 85 1002.4
20260509145906 11 253 9.7 22.5 0.00 0.00 0.00 85 1002.4
20260509145806 11 254 9.7 22.5 0.00 0.00 0.00 85 1002.4
20260509145706 11 255 9.7 22.5 0.00 0.00 0.00 85 1002.4
20260509145606 11 254 9.7 20.9 0.00 0.00 0.00 85 1002.3
20260509145506 11 256 9.7 20.9 0.00 0.00 0.00 85 1002.2
20260509145405 11 253 9.7 20.9 0.00 0.00 0.00 85 1002.2
20260509145306 11 255 9.7 20.9 0.00 0.00 0.00 86 1002.2
20260509145206 11 255 9.7 20.9 0.00 0.00 0.00 85 1002.2
20260509145106 11 256 9.7 24.1 0.00 0.00 0.00 85 1002.0
20260509145006 11 256 9.7 24.1 0.00 0.00 0.00 85 1002.1
20260509144927 11 257 9.7 24.1 0.00 0.00 0.00 85 1002.1
20260509144806 11 256 11.3 24.1 0.00 0.00 0.00 85 1001.9
20260509144706 11 253 9.7 24.1 0.00 0.00 0.00 85 1001.9
20260509144606 11 251 9.7 24.1 0.00 0.00 0.00 85 1001.9
20260509144506 11 250 11.3 24.1 0.00 0.00 0.00 85 1001.9
20260509144406 11 251 9.7 24.1 0.00 0.00 0.00 85 1001.9
20260509144306 11 249 11.3 24.1 0.00 0.00 0.00 85 1001.9
20260509144206 11 247 11.3 24.1 0.00 0.00 0.00 85 1002.0
20260509144106 11 246 11.3 24.1 0.00 0.00 0.00 85 1002.0
20260509144006 11 246 11.3 24.1 0.00 0.00 0.00 85 1002.0
20260509143906 11 246 11.3 29.0 0.00 0.00 0.00 85 1002.0
20260509143806 11 246 11.3 29.0 0.00 0.00 0.00 85 1001.9
20260509143706 11 247 11.3 29.0 0.00 0.00 0.00 84 1001.9
20260509143606 11 249 9.7 29.0 0.00 0.00 0.00 85 1001.9
20260509143506 11 248 9.7 29.0 0.00 0.00 0.00 85 1001.8
20260509143405 11 247 9.7 29.0 0.00 0.00 0.00 85 1001.8
20260509143306 11 246 9.7 29.0 0.00 0.00 0.00 84 1001.9
20260509143227 11 247 9.7 29.0 0.00 0.00 0.00 84 1001.9
20260509143106 11 247 9.7 29.0 0.00 0.00 0.00 84 1001.9
20260509143006 11 244 8.0 29.0 0.00 0.00 0.00 84 1001.7
20260509142905 11 240 9.7 20.9 0.00 0.00 0.00 84 1001.7
20260509142827 11 241 9.7 20.9 0.00 0.00 0.00 85 1001.8
20260509142706 11 242 9.7 20.9 0.00 0.00 0.00 85 1001.6
20260509142627 11 241 9.7 20.9 0.00 0.00 0.00 85 1001.6
20260509142506 11 241 9.7 20.9 0.00 0.00 0.00 85 1001.6
20260509142406 11 241 9.7 20.9 0.00 0.00 0.00 84 1001.6
20260509142307 11 240 9.7 19.3 0.00 0.00 0.00 84 1001.6
20260509142227 11 238 9.7 22.5 0.00 0.00 0.00 84 1001.5
20260509142127 11 238 8.0 22.5 0.00 0.00 0.00 84 1001.5
20260509142005 11 237 9.7 22.5 0.00 0.00 0.00 84 1001.5
20260509141905 11 240 8.0 22.5 0.00 0.00 0.00 84 1001.6
20260509141807 12 236 8.0 22.5 0.00 0.00 0.00 84 1001.6
20260509141727 12 234 8.0 22.5 0.00 0.00 0.00 84 1001.5
20260509141606 12 234 8.0 22.5 0.00 0.00 0.00 84 1001.5
20260509141505 12 233 9.7 22.5 0.00 0.00 0.00 84 1001.4
20260509141406 12 232 9.7 22.5 0.00 0.00 0.00 84 1001.5
20260509141306 12 234 9.7 22.5 0.00 0.00 0.00 84 1001.5
20260509141227 12 236 9.7 19.3 0.00 0.00 0.00 84 1001.5
20260509141106 12 234 9.7 19.3 0.00 0.00 0.00 84 1001.5
20260509141006 12 238 9.7 22.5 0.00 0.00 0.00 83 1001.5
20260509140906 12 238 9.7 22.5 0.00 0.00 0.00 83 1001.4
20260509140827 12 238 9.7 22.5 0.00 0.00 0.00 83 1001.4
20260509140706 12 242 11.3 25.7 0.00 0.00 0.00 84 1001.4
20260509140606 12 238 11.3 25.7 0.00 0.00 0.00 84 1001.3
20260509140505 12 238 11.3 25.7 0.00 0.00 0.00 84 1001.3
20260509140407 12 240 11.3 27.4 0.00 0.00 0.00 84 1001.4
20260509140327 12 242 11.3 27.4 0.00 0.00 0.00 84 1001.4
20260509140206 12 240 11.3 27.4 0.00 0.00 0.00 84 1001.4
20260509140127 12 240 11.3 27.4 0.00 0.00 0.00 84 1001.4
20260509140006 12 236 11.3 27.4 0.00 0.00 0.00 84 1001.4
20260509135905 12 235 11.3 27.4 0.00 0.00 0.00 84 1001.4
20260509135827 12 236 11.3 29.0 0.00 0.00 0.00 83 1001.4
20260509135727 12 236 11.3 29.0 0.00 0.00 0.00 83 1001.3
20260509135606 12 238 11.3 29.0 0.00 0.00 0.00 83 1001.4
20260509135505 12 237 9.7 29.0 0.00 0.00 0.00 83 1001.4
20260509135426 12 236 9.7 29.0 0.00 0.00 0.00 83 1001.2
20260509135306 12 234 9.7 29.0 0.00 0.00 0.00 84 1001.2
20260509135227 12 237 9.7 29.0 0.00 0.00 0.00 84 1001.3
20260509135106 12 235 11.3 29.0 0.00 0.00 0.00 84 1001.2
20260509135006 12 232 11.3 29.0 0.00 0.00 0.00 84 1001.2
20260509134905 12 235 9.7 29.0 0.00 0.00 0.00 84 1001.3
20260509134806 12 233 11.3 29.0 0.00 0.00 0.00 84 1001.3
20260509134706 12 234 9.7 29.0 0.00 0.00 0.00 84 1001.3
20260509134606 12 234 11.3 29.0 0.00 0.00 0.00 84 1001.2
20260509134505 12 236 11.3 29.0 0.00 0.00 0.00 85 1001.2
20260509134405 12 236 11.3 29.0 0.00 0.00 0.00 85 1001.0
20260509134306 11 236 11.3 29.0 0.00 0.00 0.00 85 1001.0
20260509134206 11 234 11.3 29.0 0.00 0.00 0.00 85 1001.0
20260509134105 11 233 11.3 29.0 0.00 0.00 0.00 85 1001.0
20260509134026 11 234 11.3 29.0 0.00 0.00 0.00 85 1001.0
20260509133906 11 231 9.7 29.0 0.00 0.00 0.00 85 1001.2
20260509133806 11 232 11.3 24.1 0.00 0.00 0.00 85 1001.1
20260509133706 11 232 11.3 25.7 0.00 0.00 0.00 85 1001.1
20260509133627 11 232 11.3 25.7 0.00 0.00 0.00 85 1001.2
20260509133506 11 234 11.3 25.7 0.00 0.00 0.00 85 1001.2
20260509133427 11 233 11.3 25.7 0.00 0.00 0.00 85 1001.2
20260509133327 12 233 11.3 25.7 0.00 0.00 0.00 85 1001.1
20260509133206 12 232 11.3 25.7 0.00 0.00 0.00 85 1001.1
20260509133105 12 232 11.3 25.7 0.00 0.00 0.00 85 1001.2
20260509133005 11 233 12.9 25.7 0.00 0.00 0.00 85 1001.2
20260509132906 11 232 11.3 25.7 0.00 0.00 0.00 85 1001.2
20260509132806 11 232 11.3 25.7 0.00 0.00 0.00 85 1001.3
20260509132706 11 228 11.3 25.7 0.00 0.00 0.00 85 1001.3
20260509132626 11 227 11.3 25.7 0.00 0.00 0.00 85 1001.2
20260509132506 11 225 11.3 25.7 0.00 0.00 0.00 86 1001.2
20260509132406 11 223 11.3 25.7 0.00 0.00 0.00 85 1001.2
20260509132307 11 225 9.7 25.7 0.00 0.00 0.00 86 1001.0
20260509132205 11 226 9.7 25.7 0.00 0.00 0.00 86 1001.0
20260509132105 11 229 11.3 30.6 0.00 0.00 0.00 86 1001.1
20260509132027 11 229 11.3 30.6 0.00 0.00 0.00 86 1001.1
20260509131905 11 234 11.3 30.6 0.00 0.00 0.00 86 1001.1
20260509131806 11 235 11.3 30.6 0.00 0.00 0.00 86 1001.0
20260509131705 11 235 11.3 30.6 0.00 0.00 0.00 86 1001.2
20260509131605 11 237 11.3 30.6 0.00 0.00 0.00 86 1001.2
20260509131527 11 236 11.3 30.6 0.00 0.00 0.00 86 1001.0
20260509131406 11 235 11.3 30.6 0.00 0.00 0.00 86 1001.0
20260509131306 11 235 11.3 30.6 0.00 0.00 0.00 86 1001.1
20260509131206 11 235 12.9 30.6 0.00 0.00 0.00 86 1001.1
20260509131106 11 235 12.9 29.0 0.00 0.00 0.00 86 1001.1
20260509131006 11 236 12.9 30.6 0.00 0.00 0.00 86 1001.3
20260509130906 11 236 12.9 30.6 0.00 0.00 0.00 86 1001.3
20260509130806 11 232 11.3 30.6 0.00 0.00 0.00 86 1001.2
20260509130706 11 234 11.3 30.6 0.00 0.00 0.00 86 1001.2
20260509130606 11 231 11.3 30.6 0.00 0.00 0.00 86 1001.2
20260509130506 11 229 11.3 30.6 0.00 0.00 0.00 86 1001.2
20260509130406 11 226 11.3 30.6 0.00 0.00 0.00 86 1001.2
20260509130305 11 225 11.3 30.6 0.00 0.00 0.00 86 1001.2
20260509130226 11 228 11.3 30.6 0.00 0.00 0.00 86 1001.2
20260509130105 11 225 9.7 30.6 0.00 0.00 0.00 86 1001.4
20260509130006 11 218 9.7 25.7 0.00 0.00 0.00 86 1001.1
20260509125927 11 216 9.7 25.7 0.00 0.00 0.00 87 1001.1
20260509125827 11 218 9.7 25.7 0.00 0.00 0.00 87 1001.1
20260509125705 11 225 11.3 25.7 0.00 0.00 0.00 87 1001.1
20260509125626 11 224 11.3 25.7 0.00 0.00 0.00 87 1001.1
20260509125506 11 229 11.3 25.7 0.00 0.00 0.00 87 1001.0
20260509125406 11 232 11.3 25.7 0.00 0.00 0.00 87 1001.1
20260509125308 11 235 11.3 25.7 0.00 0.00 0.00 86 1001.1
20260509125206 11 236 11.3 30.6 0.00 0.00 0.00 87 1000.9
20260509125105 11 237 11.3 30.6 0.00 0.00 0.00 87 1000.9
20260509125005 11 235 11.3 30.6 0.00 0.00 0.00 87 1001.1
20260509124906 11 232 11.3 30.6 0.00 0.00 0.00 87 1001.0
20260509124806 11 230 11.3 30.6 0.00 0.00 0.00 87 1001.0
20260509124705 11 224 11.3 30.6 0.00 0.00 0.00 87 1001.1
20260509124606 11 226 11.3 30.6 0.00 0.00 0.00 87 1001.1
20260509124505 11 228 11.3 32.2 0.00 0.00 0.00 87 1001.1
20260509124406 11 226 11.3 32.2 0.00 0.00 0.00 87 1001.1
20260509124306 11 222 11.3 32.2 0.00 0.00 0.00 86 1001.1
20260509124205 11 218 11.3 32.2 0.00 0.00 0.00 86 1001.0
20260509124105 11 215 11.3 32.2 0.00 0.00 0.00 86 1001.2
20260509124026 11 217 11.3 32.2 0.00 0.00 0.00 86 1001.2
20260509123905 11 225 11.3 32.2 0.00 0.00 0.00 87 1001.0
20260509123827 11 228 11.3 32.2 0.00 0.00 0.00 87 1001.0
20260509123705 11 231 11.3 32.2 0.00 0.00 0.00 87 1001.0
20260509123605 11 225 11.3 32.2 0.00 0.00 0.00 87 1001.1
20260509123506 11 224 11.3 27.4 0.00 0.00 0.00 87 1001.1
20260509123406 11 226 11.3 27.4 0.00 0.00 0.00 87 1001.0
20260509123328 11 228 11.3 27.4 0.00 0.00 0.00 87 1001.0
20260509123205 11 232 11.3 27.4 0.00 0.00 0.00 87 1001.1
20260509123105 11 232 12.9 27.4 0.00 0.00 0.00 87 1001.2
20260509123005 11 232 12.9 27.4 0.00 0.00 0.00 87 1001.2
20260509122906 11 230 11.3 27.4 0.00 0.00 0.00 87 1001.1
20260509122827 11 225 11.3 27.4 0.00 0.00 0.00 87 1001.1
20260509122705 11 222 12.9 29.0 0.00 0.00 0.00 87 1001.0
20260509122605 11 225 12.9 29.0 0.00 0.00 0.00 87 1001.2
20260509122506 11 226 12.9 29.0 0.00 0.00 0.00 87 1001.2
20260509122406 11 222 12.9 29.0 0.00 0.00 0.00 87 1001.1
20260509122306 11 220 12.9 29.0 0.00 0.00 0.00 87 1001.2
20260509122205 11 219 12.9 29.0 0.00 0.00 0.00 87 1001.2
20260509122127 11 222 12.9 29.0 0.00 0.00 0.00 87 1001.3
20260509122006 11 216 12.9 29.0 0.00 0.00 0.00 87 1001.3
20260509121906 11 217 11.3 29.0 0.00 0.00 0.00 87 1001.0
20260509121805 11 220 11.3 29.0 0.00 0.00 0.00 87 1001.1
20260509121705 11 220 11.3 25.7 0.00 0.00 0.00 87 1001.1
20260509121606 11 222 11.3 25.7 0.00 0.00 0.00 87 1001.1
20260509121506 11 220 11.3 25.7 0.00 0.00 0.00 87 1001.1
20260509121406 11 222 11.3 25.7 0.00 0.00 0.00 87 1001.0
20260509121305 11 223 11.3 25.7 0.00 0.00 0.00 87 1001.2
20260509121205 11 221 11.3 25.7 0.00 0.00 0.00 87 1001.2
20260509121105 11 220 9.7 25.7 0.00 0.00 0.00 87 1001.2
20260509121027 11 223 9.7 25.7 0.00 0.00 0.00 87 1001.2
20260509120906 11 222 9.7 25.7 0.00 0.00 0.00 87 1001.1
20260509120805 11 225 9.7 25.7 0.00 0.00 0.00 87 1001.4
20260509120726 11 223 9.7 25.7 0.00 0.00 0.00 87 1001.4
20260509120627 11 221 9.7 27.4 0.00 0.00 0.00 87 1001.3
20260509120505 11 218 9.7 27.4 0.00 0.00 0.00 87 1001.3
20260509120405 11 217 8.0 27.4 0.00 0.00 0.00 87 1001.3
20260509120305 11 216 9.7 27.4 0.00 0.00 0.00 87 1001.1
20260509120205 11 217 9.7 27.4 0.00 0.00 0.00 87 1001.1
20260509120105 11 218 9.7 27.4 0.00 0.00 0.00 87 1001.1
20260509120006 11 216 9.7 27.4 0.00 0.00 0.00 87 1001.3
20260509115905 11 215 9.7 27.4 0.00 0.00 0.00 87 1001.3
20260509115805 11 211 9.7 27.4 0.00 0.00 0.00 87 1001.1
20260509115705 11 214 9.7 27.4 0.00 0.00 0.00 87 1001.2
20260509115627 11 215 9.7 24.1 0.00 0.00 0.00 87 1001.2
20260509115506 11 216 9.7 24.1 0.00 0.00 0.00 87 1001.1
20260509115405 11 217 11.3 24.1 0.00 0.00 0.00 87 1001.1
20260509115307 11 219 11.3 24.1 0.00 0.00 0.00 86 1001.2
20260509115226 11 219 11.3 25.7 0.00 0.00 0.00 86 1001.2
20260509115106 11 223 11.3 25.7 0.00 0.00 0.00 86 1001.2
20260509115006 11 226 11.3 25.7 0.00 0.00 0.00 86 1001.1
20260509114926 11 227 11.3 25.7 0.00 0.00 0.00 86 1001.1
20260509114805 11 228 9.7 25.7 0.00 0.00 0.00 86 1001.2
20260509114705 11 228 9.7 25.7 0.00 0.00 0.00 86 1001.0
20260509114605 11 228 9.7 25.7 0.00 0.00 0.00 86 1001.0
20260509114527 11 228 9.7 25.7 0.00 0.00 0.00 86 1001.1
20260509114405 11 226 9.7 25.7 0.00 0.00 0.00 85 1001.1
20260509114306 11 226 9.7 25.7 0.00 0.00 0.00 86 1001.3
20260509114205 11 226 8.0 20.9 0.00 0.00 0.00 86 1001.1
20260509114105 11 227 8.0 20.9 0.00 0.00 0.00 86 1001.1
20260509114006 11 226 8.0 20.9 0.00 0.00 0.00 86 1001.1
20260509113906 11 222 9.7 20.9 0.00 0.00 0.00 86 1001.1
20260509113805 11 223 9.7 24.1 0.00 0.00 0.00 86 1001.1
20260509113705 11 219 9.7 24.1 0.00 0.00 0.00 86 1001.1
20260509113626 11 219 9.7 24.1 0.00 0.00 0.00 86 1001.1
20260509113527 11 223 9.7 24.1 0.00 0.00 0.00 86 1001.1
20260509113405 11 225 9.7 24.1 0.00 0.00 0.00 86 1001.1
20260509113305 11 221 9.7 24.1 0.00 0.00 0.00 86 1001.1
20260509113205 11 215 9.7 24.1 0.00 0.00 0.00 86 1000.9
20260509113105 11 217 9.7 24.1 0.00 0.00 0.00 85 1000.9
20260509113006 11 217 9.7 24.1 0.00 0.00 0.00 85 1001.0
20260509112905 11 219 9.7 24.1 0.00 0.00 0.00 85 1000.9
20260509112805 11 220 9.7 22.5 0.00 0.00 0.00 85 1000.9
20260509112726 11 222 9.7 22.5 0.00 0.00 0.00 85 1000.8
20260509112605 11 222 9.7 22.5 0.00 0.00 0.00 85 1000.8
20260509112505 11 217 9.7 22.5 0.00 0.00 0.00 86 1000.9
20260509112406 11 215 9.7 27.4 0.00 0.00 0.00 86 1000.8
20260509112307 11 216 9.7 27.4 0.00 0.00 0.00 86 1000.8
20260509112206 11 220 9.7 27.4 0.00 0.00 0.00 86 1000.8
20260509112126 11 220 9.7 27.4 0.00 0.00 0.00 85 1000.8
20260509112005 11 222 11.3 27.4 0.00 0.00 0.00 85 1000.8
20260509111906 11 225 11.3 27.4 0.00 0.00 0.00 85 1000.7
20260509111805 11 222 11.3 27.4 0.00 0.00 0.00 85 1000.7
20260509111726 11 224 11.3 27.4 0.00 0.00 0.00 85 1000.6
20260509111605 11 221 11.3 27.4 0.00 0.00 0.00 85 1000.6
20260509111505 11 224 11.3 27.4 0.00 0.00 0.00 85 1000.6
20260509111426 11 223 11.3 27.4 0.00 0.00 0.00 85 1000.7
20260509111305 11 223 9.7 25.7 0.00 0.00 0.00 85 1000.7
20260509111226 11 220 9.7 25.7 0.00 0.00 0.00 85 1000.5
20260509111105 11 222 11.3 24.1 0.00 0.00 0.00 85 1000.6
20260509111005 11 223 11.3 24.1 0.00 0.00 0.00 85 1000.6
20260509110905 11 222 11.3 24.1 0.00 0.00 0.00 85 1000.5
20260509110805 11 223 11.3 24.1 0.00 0.00 0.00 85 1000.5
20260509110705 11 219 9.7 24.1 0.00 0.00 0.00 85 1000.7
20260509110605 11 224 11.3 24.1 0.00 0.00 0.00 85 1000.6
20260509110526 11 225 11.3 24.1 0.00 0.00 0.00 85 1000.6
20260509110405 11 227 11.3 24.1 0.00 0.00 0.00 85 1000.7
20260509110305 11 229 11.3 24.1 0.00 0.00 0.00 85 1000.6
20260509110205 11 229 9.7 24.1 0.00 0.00 0.00 85 1000.6
20260509110126 11 228 9.7 25.7 0.00 0.00 0.00 86 1000.7
20260509110005 11 221 9.7 25.7 0.00 0.00 0.00 86 1000.7
20260509105905 11 222 9.7 25.7 0.00 0.00 0.00 86 1000.6
20260509105805 11 223 8.0 25.7 0.00 0.00 0.00 86 1000.6
20260509105706 11 225 8.0 25.7 0.00 0.00 0.00 86 1000.6
20260509105606 11 226 8.0 25.7 0.00 0.00 0.00 86 1000.7
20260509105505 11 229 8.0 25.7 0.00 0.00 0.00 86 1000.7
20260509105405 11 232 9.7 25.7 0.00 0.00 0.00 86 1000.6
20260509105306 11 228 9.7 25.7 0.00 0.00 0.00 86 1000.5
20260509105205 11 227 9.7 25.7 0.00 0.00 0.00 86 1000.5
20260509105105 11 225 9.7 24.1 0.00 0.00 0.00 86 1000.6
20260509105005 11 224 9.7 25.7 0.00 0.00 0.00 86 1000.6
20260509104926 11 226 9.7 25.7 0.00 0.00 0.00 86 1000.6
20260509104805 11 225 8.0 25.7 0.00 0.00 0.00 86 1000.8
20260509104705 11 227 9.7 25.7 0.00 0.00 0.00 86 1000.8
20260509104605 11 225 8.0 25.7 0.00 0.00 0.00 86 1000.5
20260509104505 11 220 8.0 25.7 0.00 0.00 0.00 86 1000.6
20260509104426 11 219 8.0 25.7 0.00 0.00 0.00 86 1000.6
20260509104305 11 218 8.0 25.7 0.00 0.00 0.00 87 1000.6
20260509104205 11 218 8.0 25.7 0.00 0.00 0.00 87 1000.6
20260509104108 11 218 8.0 25.7 0.00 0.00 0.00 87 1000.6
20260509104005 11 220 8.0 24.1 0.00 0.00 0.00 87 1000.7
20260509103905 11 219 8.0 24.1 0.00 0.00 0.00 87 1000.7
20260509103827 11 219 8.0 24.1 0.00 0.00 0.00 87 1000.6
20260509103705 11 210 8.0 24.1 0.00 0.00 0.00 87 1000.6
20260509103605 11 209 9.7 24.1 0.00 0.00 0.00 87 1000.7
20260509103505 11 210 9.7 24.1 0.00 0.00 0.00 86 1000.8
20260509103406 11 211 9.7 24.1 0.00 0.00 0.00 87 1000.8
20260509103305 11 211 9.7 24.1 0.00 0.00 0.00 87 1000.7
20260509103205 11 205 9.7 24.1 0.00 0.00 0.00 87 1000.9
20260509103105 11 207 9.7 22.5 0.00 0.00 0.00 87 1000.9
20260509103005 11 209 9.7 22.5 0.00 0.00 0.00 86 1000.8
20260509102905 11 208 9.7 22.5 0.00 0.00 0.00 86 1000.8
20260509102805 11 210 8.0 22.5 0.00 0.00 0.00 86 1000.8
20260509102726 11 213 8.0 22.5 0.00 0.00 0.00 86 1000.8
20260509102606 11 214 8.0 22.5 0.00 0.00 0.00 86 1000.8
20260509102505 11 212 8.0 22.5 0.00 0.00 0.00 86 1000.8
20260509102405 11 212 8.0 22.5 0.00 0.00 0.00 86 1000.8
20260509102306 11 211 8.0 20.9 0.00 0.00 0.00 86 1001.0
20260509102205 11 220 8.0 20.9 0.00 0.00 0.00 86 1001.0
20260509102105 11 221 6.4 20.9 0.00 0.00 0.00 86 1001.0
20260509102005 11 219 6.4 20.9 0.00 0.00 0.00 87 1000.9
20260509101926 11 218 6.4 20.9 0.00 0.00 0.00 87 1000.9
20260509101827 11 221 6.4 20.9 0.00 0.00 0.00 87 1001.0
20260509101705 11 222 6.4 20.9 0.00 0.00 0.00 87 1000.9
20260509101626 11 225 6.4 20.9 0.00 0.00 0.00 87 1000.9
20260509101505 11 222 6.4 20.9 0.00 0.00 0.00 87 1000.9
20260509101405 11 212 6.4 25.7 0.00 0.00 0.00 87 1000.9
20260509101305 11 214 6.4 25.7 0.00 0.00 0.00 87 1000.9
20260509101205 11 209 8.0 25.7 0.00 0.00 0.00 87 1000.8
20260509101105 11 206 8.0 25.7 0.00 0.00 0.00 87 1000.8
20260509101005 11 203 8.0 25.7 0.00 0.00 0.00 86 1000.9
20260509100926 11 204 8.0 25.7 0.00 0.00 0.00 86 1000.9
20260509100805 11 203 9.7 25.7 0.00 0.00 0.00 86 1000.9
20260509100705 11 199 9.7 25.7 0.00 0.00 0.00 86 1001.0
20260509100626 11 196 9.7 25.7 0.00 0.00 0.00 86 1001.0
20260509100505 11 200 9.7 25.7 0.00 0.00 0.00 86 1000.9
20260509100406 11 209 9.7 24.1 0.00 0.00 0.00 86 1001.0
20260509100305 11 206 9.7 24.1 0.00 0.00 0.00 86 1001.0
20260509100205 11 205 9.7 24.1 0.00 0.00 0.00 86 1000.8
20260509100105 11 209 8.0 22.5 0.00 0.00 0.00 86 1001.0
20260509100005 11 214 8.0 22.5 0.00 0.00 0.00 86 1001.0
20260509095906 11 213 8.0 22.5 0.00 0.00 0.00 86 1000.9
20260509095805 11 215 9.7 22.5 0.00 0.00 0.00 86 1000.9
20260509095705 11 217 9.7 22.5 0.00 0.00 0.00 86 1000.9
20260509095626 11 217 9.7 22.5 0.00 0.00 0.00 86 1000.9
20260509095505 11 211 9.7 22.5 0.00 0.00 0.00 86 1001.0
20260509095405 11 209 9.7 22.5 0.00 0.00 0.00 86 1000.9
20260509095306 11 212 9.7 20.9 0.00 0.00 0.00 86 1000.9
20260509095205 11 212 9.7 20.9 0.00 0.00 0.00 86 1000.9
20260509095105 11 215 11.3 27.4 0.00 0.00 0.00 86 1000.9
20260509095005 11 210 11.3 27.4 0.00 0.00 0.00 86 1000.9
20260509094905 11 210 11.3 27.4 0.00 0.00 0.00 86 1000.9
20260509094805 11 210 9.7 27.4 0.00 0.00 0.00 86 1000.9
20260509094705 11 209 9.7 27.4 0.00 0.00 0.00 86 1001.0
20260509094605 11 211 9.7 27.4 0.00 0.00 0.00 86 1001.0
20260509094505 12 213 9.7 27.4 0.00 0.00 0.00 86 1001.0
20260509094405 11 213 9.7 27.4 0.00 0.00 0.00 86 1001.0
20260509094326 11 209 9.7 27.4 0.00 0.00 0.00 86 1001.0
20260509094226 11 208 9.7 27.4 0.00 0.00 0.00 86 1001.0
20260509094105 11 203 8.0 25.7 0.00 0.00 0.00 86 1001.0
20260509094005 11 203 8.0 20.9 0.00 0.00 0.00 86 1001.0
20260509093905 11 205 8.0 20.9 0.00 0.00 0.00 86 1001.0
20260509093805 11 205 8.0 20.9 0.00 0.00 0.00 86 1001.0
20260509093705 11 205 8.0 20.9 0.00 0.00 0.00 87 1001.0
20260509093605 11 205 8.0 19.3 0.00 0.00 0.00 87 1001.1
20260509093505 11 200 8.0 20.9 0.00 0.00 0.00 87 1001.1
20260509093405 11 195 8.0 20.9 0.00 0.00 0.00 87 1001.0
20260509093305 11 198 8.0 20.9 0.00 0.00 0.00 87 1001.0
20260509093205 11 198 8.0 20.9 0.00 0.00 0.00 87 1001.0
20260509093105 11 202 6.4 20.9 0.00 0.00 0.00 87 1001.2
20260509093005 11 205 6.4 20.9 0.00 0.00 0.00 87 1001.2
20260509092905 11 205 6.4 20.9 0.00 0.00 0.00 87 1001.2
20260509092805 11 205 6.4 20.9 0.00 0.00 0.00 87 1001.2
20260509092726 11 206 6.4 20.9 0.00 0.00 0.00 87 1001.2
20260509092605 11 204 6.4 20.9 0.00 0.00 0.00 87 1001.2
20260509092526 11 208 6.4 19.3 0.00 0.00 0.00 87 1001.2
20260509092405 11 215 6.4 19.3 0.00 0.00 0.00 88 1001.2
20260509092306 11 215 8.0 19.3 0.00 0.00 0.00 88 1001.3
20260509092226 11 214 8.0 19.3 0.00 0.00 0.00 88 1001.3
20260509092105 11 209 8.0 19.3 0.00 0.00 0.00 88 1001.4
20260509092005 11 209 8.0 19.3 0.00 0.00 0.00 88 1001.3
20260509091926 11 206 8.0 19.3 0.00 0.00 0.00 88 1001.3
20260509091805 11 205 6.4 19.3 0.00 0.00 0.00 88 1001.4
20260509091705 11 204 6.4 19.3 0.00 0.00 0.00 88 1001.4
20260509091605 11 206 6.4 17.7 0.00 0.00 0.00 88 1001.3
20260509091505 11 208 6.4 17.7 0.00 0.00 0.00 88 1001.4
20260509091405 11 207 6.4 17.7 0.00 0.00 0.00 88 1001.4
20260509091305 11 208 6.4 24.1 0.00 0.00 0.00 88 1001.4
20260509091205 11 209 8.0 24.1 0.00 0.00 0.00 88 1001.5
20260509091105 11 207 8.0 24.1 0.00 0.00 0.00 88 1001.5
20260509091005 11 205 8.0 24.1 0.00 0.00 0.00 88 1001.5
20260509090905 11 204 9.7 24.1 0.00 0.00 0.00 88 1001.5
20260509090805 11 206 9.7 24.1 0.00 0.00 0.00 88 1001.4
20260509090705 11 204 9.7 24.1 0.00 0.00 0.00 88 1001.4
20260509090605 11 206 9.7 24.1 0.00 0.00 0.00 88 1001.4
20260509090505 11 203 9.7 24.1 0.00 0.00 0.00 88 1001.4
20260509090405 11 203 8.0 24.1 0.00 0.00 0.00 88 1001.4
20260509090326 11 202 8.0 24.1 0.00 0.00 0.00 88 1001.6
20260509090205 11 204 8.0 22.5 0.00 0.00 0.00 88 1001.6
20260509090126 11 206 8.0 20.9 0.00 0.00 0.00 88 1001.6
20260509090026 11 207 8.0 19.3 0.00 0.00 0.00 88 1001.6
20260509085905 11 211 6.4 19.3 0.00 0.00 0.00 88 1001.6
20260509085805 11 209 6.4 24.1 0.00 0.00 0.00 88 1001.5
20260509085705 11 211 6.4 24.1 0.00 0.00 0.00 87 1001.5
20260509085605 11 213 8.0 24.1 0.00 0.00 0.00 87 1001.5
20260509085505 11 218 8.0 24.1 0.00 0.00 0.00 87 1001.6
20260509085405 11 218 8.0 24.1 0.00 0.00 0.00 87 1001.6
20260509085326 11 220 8.0 24.1 0.00 0.00 0.00 87 1001.6
20260509085205 11 224 8.0 24.1 0.00 0.00 0.00 87 1001.6
20260509085105 11 229 8.0 24.1 0.00 0.00 0.00 87 1001.6
20260509085005 11 230 8.0 24.1 0.00 0.00 0.00 86 1001.6
20260509084926 11 231 8.0 24.1 0.00 0.00 0.00 86 1001.6
20260509084806 12 230 8.0 17.7 0.00 0.00 0.00 86 1001.6
20260509084705 12 232 8.0 17.7 0.00 0.00 0.00 86 1001.6
20260509084605 12 229 8.0 19.3 0.00 0.00 0.00 86 1001.6
20260509084505 12 230 8.0 25.7 0.00 0.00 0.00 86 1001.6
20260509084405 12 229 8.0 25.7 0.00 0.00 0.00 86 1001.6
20260509084305 12 228 8.0 25.7 0.00 0.00 0.00 86 1001.6
20260509084205 12 222 8.0 25.7 0.00 0.00 0.00 86 1001.6
20260509084105 12 214 8.0 25.7 0.00 0.00 0.00 86 1001.6
20260509084005 12 213 6.4 25.7 0.00 0.00 0.00 86 1001.7
20260509083905 12 210 6.4 25.7 0.00 0.00 0.00 86 1001.7
20260509083826 12 213 6.4 25.7 0.00 0.00 0.00 86 1001.7
20260509083726 12 216 8.0 25.7 0.00 0.00 0.00 86 1001.9
20260509083626 12 216 6.4 25.7 0.00 0.00 0.00 86 1001.9
20260509083505 12 209 6.4 22.5 0.00 0.00 0.00 86 1001.7
20260509083405 12 210 6.4 22.5 0.00 0.00 0.00 86 1001.8
20260509083326 12 210 6.4 22.5 0.00 0.00 0.00 86 1001.8
20260509083205 12 215 6.4 22.5 0.00 0.00 0.00 86 1001.8
20260509083105 12 218 6.4 22.5 0.00 0.00 0.00 86 1001.8
20260509083005 12 213 6.4 22.5 0.00 0.00 0.00 86 1001.8
20260509082905 12 212 6.4 22.5 0.00 0.00 0.00 86 1001.9
20260509082805 12 210 6.4 20.9 0.00 0.00 0.00 86 1001.9
20260509082705 12 205 6.4 20.9 0.00 0.00 0.00 86 1001.9
20260509082605 12 206 8.0 20.9 0.00 0.00 0.00 85 1001.9
20260509082505 12 202 8.0 20.9 0.00 0.00 0.00 85 1001.9
20260509082405 12 199 8.0 20.9 0.00 0.00 0.00 85 1001.9
20260509082326 12 198 8.0 20.9 0.00 0.00 0.00 85 1001.9
20260509082205 12 194 8.0 20.9 0.00 0.00 0.00 85 1001.9
20260509082105 12 197 8.0 19.3 0.00 0.00 0.00 85 1002.0
20260509082005 12 203 8.0 22.5 0.00 0.00 0.00 85 1002.0
20260509081905 12 207 6.4 22.5 0.00 0.00 0.00 85 1001.9
20260509081805 12 207 6.4 22.5 0.00 0.00 0.00 85 1002.0
20260509081705 12 210 6.4 22.5 0.00 0.00 0.00 85 1002.0
20260509081605 12 214 6.4 22.5 0.00 0.00 0.00 85 1002.0
20260509081526 12 215 6.4 22.5 0.00 0.00 0.00 85 1002.0
20260509081405 12 215 6.4 22.5 0.00 0.00 0.00 85 1002.0
20260509081305 12 217 6.4 22.5 0.00 0.00 0.00 85 1002.0
20260509081205 12 216 6.4 22.5 0.00 0.00 0.00 85 1002.0
20260509081126 12 218 6.4 22.5 0.00 0.00 0.00 85 1002.2
20260509081005 12 219 6.4 17.7 0.00 0.00 0.00 85 1002.2
20260509080905 12 213 6.4 17.7 0.00 0.00 0.00 84 1002.1
20260509080805 12 213 6.4 17.7 0.00 0.00 0.00 84 1002.2
20260509080705 12 212 6.4 17.7 0.00 0.00 0.00 84 1002.2
20260509080605 12 210 6.4 17.7 0.00 0.00 0.00 84 1002.2
20260509080505 12 211 6.4 17.7 0.00 0.00 0.00 84 1002.2
20260509080405 12 214 6.4 17.7 0.00 0.00 0.00 84 1002.2
20260509080305 12 211 6.4 17.7 0.00 0.00 0.00 84 1002.2
20260509080205 12 207 6.4 17.7 0.00 0.00 0.00 84 1002.2
20260509080105 12 200 6.4 17.7 0.00 0.00 0.00 84 1002.1
20260509080005 12 201 6.4 17.7 0.00 0.00 0.00 84 1002.0
20260509075905 12 203 6.4 17.7 0.00 0.00 0.00 84 1002.0
20260509075805 12 204 6.4 17.7 0.00 0.00 0.00 84 1002.3
20260509075726 12 201 6.4 17.7 0.00 0.00 0.00 84 1002.3
20260509075605 12 204 6.4 17.7 0.00 0.00 0.00 84 1002.3
20260509075505 12 208 8.0 17.7 0.00 0.00 0.00 84 1002.3
20260509075405 12 211 6.4 17.7 0.00 0.00 0.00 84 1002.3
20260509075306 12 214 6.4 17.7 0.00 0.00 0.00 84 1002.3
20260509075205 12 218 6.4 17.7 0.00 0.00 0.00 84 1002.3
20260509075105 12 226 6.4 17.7 0.00 0.00 0.00 84 1002.3
20260509075005 12 223 6.4 17.7 0.00 0.00 0.00 84 1002.4
20260509074926 12 223 6.4 17.7 0.00 0.00 0.00 83 1002.4
20260509074805 12 218 6.4 25.7 0.00 0.00 0.00 83 1002.4
20260509074705 12 218 6.4 25.7 0.00 0.00 0.00 83 1002.5
20260509074605 12 218 6.4 25.7 0.00 0.00 0.00 83 1002.5
20260509074505 12 218 4.8 25.7 0.00 0.00 0.00 83 1002.3
20260509074405 12 215 4.8 25.7 0.00 0.00 0.00 83 1002.3
20260509074326 12 213 4.8 25.7 0.00 0.00 0.00 83 1002.4
20260509074205 12 211 4.8 25.7 0.00 0.00 0.00 84 1002.4
20260509074105 12 207 4.8 25.7 0.00 0.00 0.00 84 1002.4
20260509074005 12 208 3.2 25.7 0.00 0.00 0.00 84 1002.5
20260509073905 12 217 4.8 17.7 0.00 0.00 0.00 84 1002.5
20260509073805 12 215 4.8 24.1 0.00 0.00 0.00 84 1002.5
20260509073705 12 210 4.8 24.1 0.00 0.00 0.00 84 1002.5
20260509073605 12 211 4.8 24.1 0.00 0.00 0.00 84 1002.5
20260509073505 12 212 4.8 24.1 0.00 0.00 0.00 84 1002.5
20260509073405 12 214 4.8 24.1 0.00 0.00 0.00 84 1002.5
20260509073305 12 220 6.4 24.1 0.00 0.00 0.00 84 1002.5
20260509073205 12 218 6.4 24.1 0.00 0.00 0.00 84 1002.6
20260509073105 12 215 6.4 24.1 0.00 0.00 0.00 84 1002.6
20260509073005 12 212 6.4 24.1 0.00 0.00 0.00 84 1002.7
20260509072905 12 209 6.4 24.1 0.00 0.00 0.00 84 1002.6
20260509072805 12 210 6.4 22.5 0.00 0.00 0.00 84 1002.6
20260509072705 12 211 6.4 22.5 0.00 0.00 0.00 84 1002.7
20260509072626 12 209 6.4 22.5 0.00 0.00 0.00 84 1002.7
20260509072505 12 209 6.4 22.5 0.00 0.00 0.00 84 1002.6
20260509072426 12 207 6.4 22.5 0.00 0.00 0.00 84 1002.6
20260509072306 12 205 6.4 22.5 0.00 0.00 0.00 84 1002.5
20260509072205 12 209 6.4 22.5 0.00 0.00 0.00 84 1002.6
20260509072126 12 214 6.4 22.5 0.00 0.00 0.00 84 1002.6
20260509072005 12 216 6.4 22.5 0.00 0.00 0.00 84 1002.7
20260509071905 12 216 6.4 22.5 0.00 0.00 0.00 84 1002.7
20260509071826 12 219 6.4 22.5 0.00 0.00 0.00 84 1002.7
20260509071705 12 216 6.4 19.3 0.00 0.00 0.00 84 1002.8
20260509071605 12 221 6.4 19.3 0.00 0.00 0.00 83 1002.8
20260509071505 12 220 6.4 19.3 0.00 0.00 0.00 83 1002.7
20260509071404 12 222 6.4 19.3 0.00 0.00 0.00 83 1002.8
20260509071305 12 221 6.4 19.3 0.00 0.00 0.00 83 1002.8
20260509071205 12 217 6.4 19.3 0.00 0.00 0.00 83 1002.9
20260509071105 12 213 6.4 19.3 0.00 0.00 0.00 83 1002.9
20260509071005 12 217 6.4 19.3 0.00 0.00 0.00 83 1002.9
20260509070904 12 215 6.4 19.3 0.00 0.00 0.00 83 1002.9
20260509070805 12 207 6.4 19.3 0.00 0.00 0.00 83 1002.9
20260509070705 12 210 6.4 19.3 0.00 0.00 0.00 83 1003.0
20260509070605 12 206 6.4 24.1 0.00 0.00 0.00 82 1002.9
20260509070505 12 202 6.4 24.1 0.00 0.00 0.00 82 1002.9
20260509070405 12 202 6.4 24.1 0.00 0.00 0.00 82 1002.9
20260509070326 12 200 6.4 24.1 0.00 0.00 0.00 82 1002.9
20260509070205 12 203 6.4 24.1 0.00 0.00 0.00 82 1003.0
20260509070105 12 202 6.4 24.1 0.00 0.00 0.00 81 1003.1
20260509070005 12 197 6.4 24.1 0.00 0.00 0.00 81 1003.1
20260509065905 12 202 6.4 24.1 0.00 0.00 0.00 81 1003.2
20260509065826 12 206 6.4 24.1 0.00 0.00 0.00 81 1003.2
20260509065705 12 208 6.4 24.1 0.00 0.00 0.00 81 1003.1
20260509065605 12 213 6.4 22.5 0.00 0.00 0.00 80 1003.1
20260509065504 12 218 6.4 22.5 0.00 0.00 0.00 80 1003.1
20260509065405 12 219 8.0 24.1 0.00 0.00 0.00 80 1003.0
20260509065306 12 214 8.0 24.1 0.00 0.00 0.00 80 1003.1
20260509065226 12 215 8.0 24.1 0.00 0.00 0.00 79 1003.1
20260509065105 12 215 8.0 24.1 0.00 0.00 0.00 79 1003.0
20260509065005 12 216 8.0 24.1 0.00 0.00 0.00 79 1003.0
20260509064905 13 215 8.0 24.1 0.00 0.00 0.00 79 1003.1
20260509064805 13 215 8.0 24.1 0.00 0.00 0.00 79 1003.1
20260509064704 13 213 8.0 24.1 0.00 0.00 0.00 79 1003.1
20260509064605 13 210 8.0 24.1 0.00 0.00 0.00 79 1003.3
20260509064505 13 211 8.0 24.1 0.00 0.00 0.00 79 1003.3
20260509064404 13 210 8.0 22.5 0.00 0.00 0.00 79 1003.2
20260509064304 13 214 8.0 19.3 0.00 0.00 0.00 78 1003.3
20260509064205 13 213 8.0 19.3 0.00 0.00 0.00 78 1003.3
20260509064126 13 213 8.0 19.3 0.00 0.00 0.00 78 1003.3
20260509064005 13 208 8.0 30.6 0.00 0.00 0.00 78 1003.4
20260509063925 13 208 8.0 30.6 0.00 0.00 0.00 78 1003.4
20260509063804 13 202 8.0 30.6 0.00 0.00 0.00 78 1003.4
20260509063726 13 204 8.0 30.6 0.00 0.00 0.00 78 1003.4
20260509063605 13 206 8.0 30.6 0.00 0.00 0.00 78 1003.4
20260509063505 13 205 8.0 30.6 0.00 0.00 0.00 78 1003.5
20260509063426 13 205 8.0 30.6 0.00 0.00 0.00 77 1003.5
20260509063326 13 207 8.0 30.6 0.00 0.00 0.00 77 1003.4
20260509063205 13 207 6.4 30.6 0.00 0.00 0.00 77 1003.4
20260509063105 13 204 6.4 30.6 0.00 0.00 0.00 77 1003.4
20260509063005 13 211 6.4 17.7 0.00 0.00 0.00 76 1003.4
20260509062926 13 213 6.4 17.7 0.00 0.00 0.00 76 1003.4
20260509062805 13 213 6.4 17.7 0.00 0.00 0.00 76 1003.3
20260509062705 13 214 6.4 17.7 0.00 0.00 0.00 76 1003.3
20260509062625 13 210 6.4 14.5 0.00 0.00 0.00 76 1003.4
20260509062505 13 207 4.8 14.5 0.00 0.00 0.00 75 1003.4
20260509062426 12 204 4.8 14.5 0.00 0.00 0.00 75 1003.4
20260509062326 12 197 4.8 14.5 0.00 0.00 0.00 75 1003.4
20260509062205 12 194 3.2 12.9 0.00 0.00 0.00 74 1003.4
20260509062104 12 199 3.2 12.9 0.00 0.00 0.00 74 1003.4
20260509062005 12 183 1.6 12.9 0.00 0.00 0.00 72 1003.3
20260509061926 12 178 1.6 12.9 0.00 0.00 0.00 72 1003.3
20260509061805 12 177 1.6 8.0 0.00 0.00 0.00 71 1003.3
20260509061705 12 176 1.6 9.7 0.00 0.00 0.00 68 1003.4
20260509061605 12 184 1.6 9.7 0.00 0.00 0.00 68 1003.4
20260509061505 12 187 1.6 9.7 0.00 0.00 0.00 66 1003.4
20260509061425 12 187 1.6 9.7 0.00 0.00 0.00 65 1003.4
20260509061304 12 0 0.0 9.7 0.00 0.00 0.00 63 1003.4
20260509061205 12 0 0.0 9.7 0.00 0.00 0.00 64 1003.5
20260509061105 12 0 0.0 9.7 0.00 0.00 0.00 62 1003.5
20260509061005 12 0 0.0 9.7 0.00 0.00 0.00 62 1003.6
20260509060905 12 0 0.0 9.7 0.00 0.00 0.00 62 1003.6
20260509060825 12 0 0.0 9.7 0.00 0.00 0.00 62 1003.6
20260509060705 11 0 0.0 9.7 0.00 0.00 0.00 60 1003.6
20260509060606 11 0 0.0 9.7 0.00 0.00 0.00 60 1003.6
20260509060505 11 0 0.0 9.7 0.00 0.00 0.00 60 1003.7
20260509060404 11 0 0.0 9.7 0.00 0.00 0.00 59 1003.7
20260509060304 12 0 0.0 9.7 0.00 0.00 0.00 59 1003.7
20260509060205 12 0 0.0 9.7 0.00 0.00 0.00 59 1003.7
20260509060105 12 181 1.6 9.7 0.00 0.00 0.00 59 1003.7
20260509060005 12 174 1.6 9.7 0.00 0.00 0.00 58 1003.7
20260509055905 12 175 1.6 9.7 0.00 0.00 0.00 58 1003.7
20260509055805 12 171 1.6 9.7 0.00 0.00 0.00 58 1003.7
20260509055705 12 152 1.6 8.0 0.00 0.00 0.00 58 1003.7
20260509055604 12 158 1.6 8.0 0.00 0.00 0.00 58 1003.7
20260509055504 12 166 1.6 8.0 0.00 0.00 0.00 58 1003.7
20260509055405 12 165 1.6 8.0 0.00 0.00 0.00 58 1003.8
20260509055306 12 160 1.6 8.0 0.00 0.00 0.00 57 1003.8
20260509055205 12 162 1.6 8.0 0.00 0.00 0.00 57 1003.8
20260509055105 12 165 1.6 8.0 0.00 0.00 0.00 57 1003.7
20260509055004 12 170 1.6 8.0 0.00 0.00 0.00 57 1003.7
20260509054905 12 170 1.6 8.0 0.00 0.00 0.00 57 1003.8
20260509054804 12 173 1.6 8.0 0.00 0.00 0.00 57 1003.8
20260509054704 12 178 1.6 6.4 0.00 0.00 0.00 57 1003.8
20260509054604 11 180 1.6 6.4 0.00 0.00 0.00 56 1003.8
20260509054505 11 179 1.6 6.4 0.00 0.00 0.00 56 1003.8
20260509054426 11 182 1.6 6.4 0.00 0.00 0.00 56 1003.8
20260509054305 11 0 0.0 6.4 0.00 0.00 0.00 56 1003.8
20260509054204 11 0 0.0 6.4 0.00 0.00 0.00 56 1003.8
20260509054105 11 0 0.0 6.4 0.00 0.00 0.00 56 1003.8
20260509054005 11 165 1.6 6.4 0.00 0.00 0.00 56 1003.8
20260509053926 11 161 1.6 6.4 0.00 0.00 0.00 56 1003.8
20260509053805 11 0 0.0 9.7 0.00 0.00 0.00 55 1003.8
20260509053704 11 0 0.0 9.7 0.00 0.00 0.00 55 1003.8
20260509053604 11 0 0.0 9.7 0.00 0.00 0.00 55 1003.8
20260509053504 11 0 0.0 9.7 0.00 0.00 0.00 55 1003.8
20260509053405 11 167 1.6 9.7 0.00 0.00 0.00 55 1003.8
20260509053305 11 171 1.6 9.7 0.00 0.00 0.00 55 1003.8
20260509053204 11 170 1.6 9.7 0.00 0.00 0.00 55 1003.8
20260509053105 11 177 1.6 9.7 0.00 0.00 0.00 55 1003.9
20260509053005 11 176 1.6 9.7 0.00 0.00 0.00 55 1003.9
20260509052905 11 180 1.6 9.7 0.00 0.00 0.00 55 1003.9
20260509052805 11 167 1.6 6.4 0.00 0.00 0.00 54 1003.9
20260509052704 11 167 1.6 6.4 0.00 0.00 0.00 54 1003.9
20260509052605 11 172 1.6 6.4 0.00 0.00 0.00 54 1003.9
20260509052526 11 166 1.6 6.4 0.00 0.00 0.00 54 1003.9
20260509052404 11 0 0.0 6.4 0.00 0.00 0.00 54 1003.9
20260509052307 11 155 1.6 6.4 0.00 0.00 0.00 54 1003.9
20260509052205 11 146 1.6 4.8 0.00 0.00 0.00 54 1003.8
20260509052126 11 146 1.6 4.8 0.00 0.00 0.00 54 1003.8
20260509052005 11 145 1.6 4.8 0.00 0.00 0.00 54 1003.9
20260509051904 11 144 1.6 4.8 0.00 0.00 0.00 54 1003.9
20260509051804 11 0 0.0 4.8 0.00 0.00 0.00 54 1003.9
20260509051726 11 0 0.0 4.8 0.00 0.00 0.00 54 1003.9
20260509051604 11 0 0.0 4.8 0.00 0.00 0.00 54 1003.9
20260509051505 11 0 0.0 4.8 0.00 0.00 0.00 54 1003.9
20260509051425 11 0 0.0 4.8 0.00 0.00 0.00 54 1003.9
20260509051304 11 0 0.0 4.8 0.00 0.00 0.00 54 1003.9
20260509051205 11 0 0.0 4.8 0.00 0.00 0.00 53 1003.9
20260509051105 11 0 0.0 3.2 0.00 0.00 0.00 53 1003.9
20260509051005 11 0 0.0 3.2 0.00 0.00 0.00 53 1003.9
20260509050904 11 0 0.0 3.2 0.00 0.00 0.00 53 1003.9
20260509050804 11 0 0.0 3.2 0.00 0.00 0.00 53 1003.9
20260509050705 11 0 0.0 3.2 0.00 0.00 0.00 53 1003.9
20260509050605 11 0 0.0 3.2 0.00 0.00 0.00 53 1003.9
20260509050504 11 0 0.0 3.2 0.00 0.00 0.00 53 1003.9
20260509050404 11 0 0.0 3.2 0.00 0.00 0.00 53 1003.9
20260509050304 11 0 0.0 3.2 0.00 0.00 0.00 53 1003.9
20260509050226 11 0 0.0 3.2 0.00 0.00 0.00 53 1004.0
20260509050105 11 0 0.0 3.2 0.00 0.00 0.00 53 1004.0
20260509050004 11 0 0.0 3.2 0.00 0.00 0.00 53 1003.9
20260509045904 11 0 0.0 3.2 0.00 0.00 0.00 53 1003.9
20260509045805 11 0 0.0 3.2 0.00 0.00 0.00 53 1003.9
20260509045705 11 0 0.0 3.2 0.00 0.00 0.00 53 1003.9
20260509045605 11 0 0.0 1.6 0.00 0.00 0.00 52 1003.9
20260509045504 11 0 0.0 3.2 0.00 0.00 0.00 52 1003.9
20260509045404 11 0 0.0 3.2 0.00 0.00 0.00 52 1004.0
20260509045306 11 0 0.0 3.2 0.00 0.00 0.00 52 1004.0
20260509045204 11 0 0.0 3.2 0.00 0.00 0.00 52 1004.0
20260509045105 11 0 0.0 3.2 0.00 0.00 0.00 52 1004.0
20260509045025 11 0 0.0 3.2 0.00 0.00 0.00 52 1004.0
20260509044904 11 0 0.0 3.2 0.00 0.00 0.00 52 1004.0
20260509044804 11 0 0.0 3.2 0.00 0.00 0.00 52 1004.0
20260509044726 11 0 0.0 3.2 0.00 0.00 0.00 52 1004.0
20260509044605 11 0 0.0 3.2 0.00 0.00 0.00 52 1004.0
20260509044525 11 0 0.0 1.6 0.00 0.00 0.00 52 1004.0
20260509044404 11 0 0.0 1.6 0.00 0.00 0.00 52 1004.0
20260509044304 11 0 0.0 1.6 0.00 0.00 0.00 52 1004.0
20260509044205 11 0 0.0 1.6 0.00 0.00 0.00 52 1004.0
20260509044104 11 0 0.0 1.6 0.00 0.00 0.00 52 1003.9
20260509044005 11 0 0.0 1.6 0.00 0.00 0.00 51 1003.9
20260509043904 11 0 0.0 1.6 0.00 0.00 0.00 51 1003.9
20260509043804 11 0 0.0 1.6 0.00 0.00 0.00 51 1003.9
20260509043704 11 0 0.0 1.6 0.00 0.00 0.00 51 1003.9
20260509043605 11 0 0.0 1.6 0.00 0.00 0.00 51 1003.9
20260509043504 11 0 0.0 1.6 0.00 0.00 0.00 51 1003.9
20260509043404 11 0 0.0 1.6 0.00 0.00 0.00 51 1003.9
20260509043325 11 0 0.0 1.6 0.00 0.00 0.00 51 1003.9
20260509043225 11 0 0.0 1.6 0.00 0.00 0.00 50 1003.9
20260509043105 11 0 0.0 1.6 0.00 0.00 0.00 50 1003.9
20260509043005 11 0 0.0 1.6 0.00 0.00 0.00 50 1003.9
20260509042925 11 0 0.0 1.6 0.00 0.00 0.00 50 1003.9
20260509042804 11 0 0.0 1.6 0.00 0.00 0.00 50 1004.0
20260509042704 11 0 0.0 1.6 0.00 0.00 0.00 50 1004.0
20260509042626 11 0 0.0 1.6 0.00 0.00 0.00 50 1004.0
20260509042505 11 0 0.0 1.6 0.00 0.00 0.00 49 1004.0
20260509042426 11 0 0.0 1.6 0.00 0.00 0.00 49 1004.0
20260509042307 11 0 0.0 1.6 0.00 0.00 0.00 49 1004.1
20260509042225 11 0 0.0 1.6 0.00 0.00 0.00 49 1004.1
20260509042104 11 0 0.0 1.6 0.00 0.00 0.00 49 1004.1
20260509042004 11 0 0.0 1.6 0.00 0.00 0.00 49 1004.1
20260509041904 11 0 0.0 1.6 0.00 0.00 0.00 49 1004.1
20260509041804 11 0 0.0 1.6 0.00 0.00 0.00 49 1004.2
20260509041705 11 0 0.0 1.6 0.00 0.00 0.00 48 1004.2
20260509041604 11 0 0.0 1.6 0.00 0.00 0.00 48 1004.2
20260509041505 11 0 0.0 3.2 0.00 0.00 0.00 48 1004.2
20260509041404 11 0 0.0 3.2 0.00 0.00 0.00 48 1004.2
20260509041304 11 0 0.0 3.2 0.00 0.00 0.00 47 1004.1
20260509041204 11 0 0.0 3.2 0.00 0.00 0.00 47 1004.1
20260509041104 11 0 0.0 3.2 0.00 0.00 0.00 47 1004.2
20260509041005 11 0 0.0 3.2 0.00 0.00 0.00 47 1004.2
20260509040904 11 0 0.0 3.2 0.00 0.00 0.00 47 1004.2
20260509040805 11 0 0.0 3.2 0.00 0.00 0.00 47 1004.2
20260509040704 11 0 0.0 3.2 0.00 0.00 0.00 47 1004.2
20260509040604 11 0 0.0 3.2 0.00 0.00 0.00 47 1004.3
20260509040505 11 0 0.0 3.2 0.00 0.00 0.00 46 1004.3
20260509040404 11 0 0.0 3.2 0.00 0.00 0.00 46 1004.3
20260509040304 11 0 0.0 1.6 0.00 0.00 0.00 46 1004.3
20260509040204 11 0 0.0 4.8 0.00 0.00 0.00 46 1004.4
20260509040104 11 0 0.0 4.8 0.00 0.00 0.00 46 1004.4
20260509040006 11 0 0.0 4.8 0.00 0.00 0.00 45 1004.4
20260509035904 11 0 0.0 4.8 0.00 0.00 0.00 45 1004.4
20260509035804 11 0 0.0 4.8 0.00 0.00 0.00 45 1004.5
20260509035704 11 0 0.0 4.8 0.00 0.00 0.00 45 1004.5
20260509035604 11 0 0.0 4.8 0.00 0.00 0.00 44 1004.5
20260509035505 11 0 0.0 4.8 0.00 0.00 0.00 44 1004.5
20260509035404 11 0 0.0 4.8 0.00 0.00 0.00 44 1004.5
20260509035306 11 0 0.0 4.8 0.00 0.00 0.00 44 1004.5
20260509035225 11 0 0.0 4.8 0.00 0.00 0.00 44 1004.5
20260509035104 11 0 0.0 3.2 0.00 0.00 0.00 44 1004.5
20260509035004 11 0 0.0 3.2 0.00 0.00 0.00 44 1004.5
20260509034926 11 0 0.0 3.2 0.00 0.00 0.00 43 1004.5
20260509034804 11 0 0.0 1.6 0.00 0.00 0.00 43 1004.5
20260509034704 11 0 0.0 1.6 0.00 0.00 0.00 43 1004.5
20260509034604 11 0 0.0 1.6 0.00 0.00 0.00 43 1004.5
20260509034504 11 0 0.0 1.6 0.00 0.00 0.00 42 1004.6
20260509034404 11 0 0.0 1.6 0.00 0.00 0.00 42 1004.6
20260509034304 11 0 0.0 1.6 0.00 0.00 0.00 42 1004.6
20260509034204 11 0 0.0 1.6 0.00 0.00 0.00 42 1004.6
20260509034104 11 0 0.0 1.6 0.00 0.00 0.00 41 1004.6
20260509034004 11 0 0.0 1.6 0.00 0.00 0.00 41 1004.6
20260509033904 11 0 0.0 1.6 0.00 0.00 0.00 41 1004.6
20260509033804 11 0 0.0 1.6 0.00 0.00 0.00 41 1004.7
20260509033704 11 0 0.0 1.6 0.00 0.00 0.00 41 1004.7
20260509033604 11 0 0.0 1.6 0.00 0.00 0.00 41 1004.7
20260509033504 11 0 0.0 1.6 0.00 0.00 0.00 40 1004.7
20260509033405 11 0 0.0 1.6 0.00 0.00 0.00 40 1004.7
20260509033325 11 0 0.0 1.6 0.00 0.00 0.00 40 1004.7
20260509033204 11 0 0.0 1.6 0.00 0.00 0.00 40 1004.7
20260509033104 11 0 0.0 1.6 0.00 0.00 0.00 40 1004.8
20260509033005 11 0 0.0 1.6 0.00 0.00 0.00 40 1004.8
20260509032904 11 0 0.0 1.6 0.00 0.00 0.00 39 1004.8
20260509032804 11 0 0.0 1.6 0.00 0.00 0.00 39 1004.8
20260509032704 11 0 0.0 1.6 0.00 0.00 0.00 39 1004.8
20260509032604 11 0 0.0 1.6 0.00 0.00 0.00 40 1004.8
20260509032504 11 0 0.0 1.6 0.00 0.00 0.00 39 1004.8
20260509032425 11 0 0.0 1.6 0.00 0.00 0.00 39 1004.8
20260509032306 11 0 0.0 3.2 0.00 0.00 0.00 39 1004.8
20260509032204 11 0 0.0 3.2 0.00 0.00 0.00 39 1004.8
20260509032104 11 0 0.0 3.2 0.00 0.00 0.00 39 1004.8
20260509032004 11 0 0.0 3.2 0.00 0.00 0.00 39 1004.9
20260509031904 11 0 0.0 3.2 0.00 0.00 0.00 39 1004.9
20260509031804 11 0 0.0 3.2 0.00 0.00 0.00 38 1004.9
20260509031704 11 0 0.0 3.2 0.00 0.00 0.00 39 1004.9
20260509031604 11 0 0.0 3.2 0.00 0.00 0.00 39 1004.9
20260509031505 11 0 0.0 3.2 0.00 0.00 0.00 39 1005.0
20260509031404 11 0 0.0 1.6 0.00 0.00 0.00 38 1005.0
20260509031304 11 0 0.0 1.6 0.00 0.00 0.00 38 1005.0
20260509031225 11 0 0.0 1.6 0.00 0.00 0.00 38 1005.0
20260509031125 11 0 0.0 0.0 0.00 0.00 0.00 38 1005.0
20260509031025 11 0 0.0 4.8 0.00 0.00 0.00 38 1005.1
20260509030904 11 0 0.0 4.8 0.00 0.00 0.00 38 1005.1
20260509030804 11 0 0.0 4.8 0.00 0.00 0.00 37 1005.1
20260509030704 11 0 0.0 4.8 0.00 0.00 0.00 37 1005.1
20260509030604 11 0 0.0 4.8 0.00 0.00 0.00 37 1005.1
20260509030504 11 0 0.0 4.8 0.00 0.00 0.00 37 1005.1
20260509030404 11 0 0.0 4.8 0.00 0.00 0.00 37 1005.1
20260509030304 11 0 0.0 4.8 0.00 0.00 0.00 37 1005.1
20260509030204 11 0 0.0 4.8 0.00 0.00 0.00 37 1005.1
20260509030105 11 0 0.0 4.8 0.00 0.00 0.00 37 1005.1
20260509030004 11 0 0.0 3.2 0.00 0.00 0.00 37 1005.1
20260509025904 11 0 0.0 3.2 0.00 0.00 0.00 37 1005.1
20260509025804 11 0 0.0 3.2 0.00 0.00 0.00 36 1005.1
20260509025704 11 0 0.0 4.8 0.00 0.00 0.00 36 1005.1
20260509025604 11 0 0.0 4.8 0.00 0.00 0.00 36 1005.1
20260509025505 11 0 0.0 4.8 0.00 0.00 0.00 36 1005.1
20260509025404 11 0 0.0 4.8 0.00 0.00 0.00 36 1005.1
20260509025306 11 0 0.0 4.8 0.00 0.00 0.00 36 1005.1
20260509025204 11 0 0.0 4.8 0.00 0.00 0.00 36 1005.2
20260509025104 11 0 0.0 4.8 0.00 0.00 0.00 36 1005.1
20260509025004 11 0 0.0 4.8 0.00 0.00 0.00 36 1005.1
20260509024904 11 0 0.0 4.8 0.00 0.00 0.00 36 1005.1
20260509024804 11 0 0.0 4.8 0.00 0.00 0.00 36 1005.1
20260509024725 11 0 0.0 4.8 0.00 0.00 0.00 36 1005.1
20260509024604 11 0 0.0 1.6 0.00 0.00 0.00 36 1005.2
20260509024504 11 0 0.0 1.6 0.00 0.00 0.00 36 1005.2
20260509024426 11 0 0.0 1.6 0.00 0.00 0.00 36 1005.2
20260509024325 11 0 0.0 1.6 0.00 0.00 0.00 36 1005.2
20260509024225 11 0 0.0 1.6 0.00 0.00 0.00 36 1005.3
20260509024125 11 0 0.0 1.6 0.00 0.00 0.00 36 1005.3
20260509024004 11 0 0.0 1.6 0.00 0.00 0.00 36 1005.2
20260509023904 11 0 0.0 1.6 0.00 0.00 0.00 36 1005.2
20260509023804 11 0 0.0 1.6 0.00 0.00 0.00 36 1005.2
20260509023704 11 0 0.0 1.6 0.00 0.00 0.00 36 1005.2
20260509023604 11 0 0.0 1.6 0.00 0.00 0.00 36 1005.2
20260509023504 11 0 0.0 1.6 0.00 0.00 0.00 36 1005.2
20260509023405 11 0 0.0 1.6 0.00 0.00 0.00 36 1005.2
20260509023304 11 0 0.0 1.6 0.00 0.00 0.00 36 1005.2
20260509023204 11 0 0.0 1.6 0.00 0.00 0.00 36 1005.2
20260509023125 11 0 0.0 0.0 0.00 0.00 0.00 36 1005.2
20260509023004 11 0 0.0 1.6 0.00 0.00 0.00 36 1005.2
20260509022925 11 0 0.0 1.6 0.00 0.00 0.00 36 1005.3
20260509022804 11 0 0.0 1.6 0.00 0.00 0.00 36 1005.3
20260509022725 11 0 0.0 1.6 0.00 0.00 0.00 36 1005.3
20260509022626 11 0 0.0 1.6 0.00 0.00 0.00 36 1005.3
20260509022504 11 0 0.0 1.6 0.00 0.00 0.00 36 1005.3
20260509022425 11 0 0.0 1.6 0.00 0.00 0.00 36 1005.3
20260509022306 11 0 0.0 1.6 0.00 0.00 0.00 36 1005.3
20260509022204 11 0 0.0 1.6 0.00 0.00 0.00 36 1005.3
20260509022104 11 0 0.0 1.6 0.00 0.00 0.00 36 1005.3
20260509022004 11 0 0.0 0.0 0.00 0.00 0.00 36 1005.4
20260509021904 11 0 0.0 0.0 0.00 0.00 0.00 36 1005.4
20260509021804 11 0 0.0 1.6 0.00 0.00 0.00 36 1005.4
20260509021725 11 0 0.0 1.6 0.00 0.00 0.00 36 1005.4
20260509021604 11 0 0.0 1.6 0.00 0.00 0.00 36 1005.4
20260509021525 11 0 0.0 1.6 0.00 0.00 0.00 36 1005.4
20260509021404 11 0 0.0 1.6 0.00 0.00 0.00 36 1005.4
20260509021304 11 0 0.0 1.6 0.00 0.00 0.00 36 1005.5
20260509021204 11 0 0.0 1.6 0.00 0.00 0.00 36 1005.5
20260509021104 11 0 0.0 1.6 0.00 0.00 0.00 36 1005.5
20260509021004 11 0 0.0 1.6 0.00 0.00 0.00 36 1005.5
20260509020904 11 0 0.0 1.6 0.00 0.00 0.00 36 1005.5
20260509020805 11 0 0.0 1.6 0.00 0.00 0.00 36 1005.4
20260509020725 11 0 0.0 1.6 0.00 0.00 0.00 36 1005.4
20260509020605 11 0 0.0 1.6 0.00 0.00 0.00 36 1005.4
20260509020504 11 0 0.0 1.6 0.00 0.00 0.00 36 1005.4
20260509020404 11 0 0.0 1.6 0.00 0.00 0.00 36 1005.4
20260509020304 11 0 0.0 1.6 0.00 0.00 0.00 36 1005.4
20260509020204 11 0 0.0 0.0 0.00 0.00 0.00 35 1005.5
20260509020104 11 0 0.0 0.0 0.00 0.00 0.00 35 1005.5
20260509020004 11 0 0.0 0.0 0.00 0.00 0.00 35 1005.4
20260509015904 11 0 0.0 1.6 0.00 0.00 0.00 35 1005.4
20260509015825 11 0 0.0 1.6 0.00 0.00 0.00 35 1005.4
20260509015725 11 0 0.0 1.6 0.00 0.00 0.00 35 1005.4
20260509015604 11 0 0.0 1.6 0.00 0.00 0.00 35 1005.4
20260509015504 11 0 0.0 1.6 0.00 0.00 0.00 35 1005.4
20260509015425 11 0 0.0 1.6 0.00 0.00 0.00 35 1005.4
20260509015325 11 0 0.0 1.6 0.00 0.00 0.00 35 1005.4
20260509015225 11 0 0.0 1.6 0.00 0.00 0.00 35 1005.4
20260509015104 11 0 0.0 1.6 0.00 0.00 0.00 35 1005.4
20260509015004 11 0 0.0 1.6 0.00 0.00 0.00 35 1005.4
20260509014904 12 0 0.0 0.0 0.00 0.00 0.00 35 1005.4
20260509014804 12 0 0.0 0.0 0.00 0.00 0.00 36 1005.4
20260509014704 12 0 0.0 0.0 0.00 0.00 0.00 36 1005.4
20260509014604 12 0 0.0 0.0 0.00 0.00 0.00 36 1005.4
20260509014525 12 0 0.0 0.0 0.00 0.00 0.00 35 1005.4
20260509014404 12 0 0.0 0.0 0.00 0.00 0.00 36 1005.4
20260509014325 12 0 0.0 0.0 0.00 0.00 0.00 36 1005.4
20260509014204 12 0 0.0 1.6 0.00 0.00 0.00 35 1005.3
20260509014104 12 0 0.0 1.6 0.00 0.00 0.00 35 1005.3
20260509014004 12 0 0.0 1.6 0.00 0.00 0.00 35 1005.3
20260509013904 12 0 0.0 1.6 0.00 0.00 0.00 35 1005.3
20260509013804 12 0 0.0 1.6 0.00 0.00 0.00 34 1005.3
20260509013704 12 0 0.0 1.6 0.00 0.00 0.00 34 1005.2
20260509013604 12 0 0.0 1.6 0.00 0.00 0.00 34 1005.2
20260509013504 12 0 0.0 1.6 0.00 0.00 0.00 34 1005.2
20260509013404 12 0 0.0 1.6 0.00 0.00 0.00 35 1005.2
20260509013304 12 0 0.0 1.6 0.00 0.00 0.00 35 1005.2
20260509013204 12 0 0.0 0.0 0.00 0.00 0.00 35 1005.2
20260509013104 12 0 0.0 1.6 0.00 0.00 0.00 35 1005.2
20260509013004 12 0 0.0 1.6 0.00 0.00 0.00 35 1005.2
20260509012904 12 0 0.0 1.6 0.00 0.00 0.00 35 1005.2
20260509012804 12 0 0.0 1.6 0.00 0.00 0.00 34 1005.2
20260509012704 12 0 0.0 1.6 0.00 0.00 0.00 34 1005.1
20260509012604 12 0 0.0 1.6 0.00 0.00 0.00 34 1005.2
20260509012504 12 0 0.0 1.6 0.00 0.00 0.00 34 1005.2
20260509012404 12 0 0.0 1.6 0.00 0.00 0.00 34 1005.1
20260509012307 12 0 0.0 1.6 0.00 0.00 0.00 34 1005.1
20260509012204 12 0 0.0 1.6 0.00 0.00 0.00 34 1005.0
20260509012104 12 0 0.0 0.0 0.00 0.00 0.00 33 1005.0
20260509012004 12 0 0.0 0.0 0.00 0.00 0.00 33 1005.0
20260509011904 12 0 0.0 0.0 0.00 0.00 0.00 33 1005.0
20260509011804 12 0 0.0 0.0 0.00 0.00 0.00 33 1005.0
20260509011704 12 0 0.0 0.0 0.00 0.00 0.00 33 1005.0
20260509011604 12 0 0.0 0.0 0.00 0.00 0.00 33 1005.1
20260509011504 12 0 0.0 0.0 0.00 0.00 0.00 33 1005.1
20260509011405 12 0 0.0 0.0 0.00 0.00 0.00 33 1005.2
20260509011304 12 0 0.0 0.0 0.00 0.00 0.00 33 1005.2
20260509011204 12 0 0.0 0.0 0.00 0.00 0.00 32 1005.2
20260509011104 12 0 0.0 0.0 0.00 0.00 0.00 32 1005.2
20260509011004 12 0 0.0 0.0 0.00 0.00 0.00 32 1005.2
20260509010904 12 0 0.0 0.0 0.00 0.00 0.00 32 1005.2
20260509010825 12 0 0.0 0.0 0.00 0.00 0.00 32 1005.2
20260509010704 13 0 0.0 0.0 0.00 0.00 0.00 32 1005.2
20260509010604 13 0 0.0 0.0 0.00 0.00 0.00 32 1005.2
20260509010504 13 0 0.0 0.0 0.00 0.00 0.00 32 1005.2
20260509010404 13 0 0.0 0.0 0.00 0.00 0.00 31 1005.2
20260509010304 13 0 0.0 0.0 0.00 0.00 0.00 31 1005.2
20260509010205 13 0 0.0 0.0 0.00 0.00 0.00 31 1005.2
20260509010104 13 0 0.0 0.0 0.00 0.00 0.00 31 1005.2
20260509010004 13 0 0.0 0.0 0.00 0.00 0.00 31 1005.2
20260509005925 13 0 0.0 0.0 0.00 0.00 0.00 30 1005.2
20260509005804 13 0 0.0 0.0 0.00 0.00 0.00 30 1005.2
20260509005704 13 0 0.0 0.0 0.00 0.00 0.00 30 1005.2
20260509005604 13 0 0.0 0.0 0.00 0.00 0.00 30 1005.2
20260509005504 13 0 0.0 0.0 0.00 0.00 0.00 30 1005.2
20260509005404 13 0 0.0 0.0 0.00 0.00 0.00 30 1005.2
20260509005306 13 0 0.0 0.0 0.00 0.00 0.00 29 1005.2
20260509005204 13 0 0.0 0.0 0.00 0.00 0.00 29 1005.2
20260509005104 13 0 0.0 0.0 0.00 0.00 0.00 28 1005.2
20260509005004 13 0 0.0 0.0 0.00 0.00 0.00 28 1005.1
20260509004904 13 0 0.0 0.0 0.00 0.00 0.00 28 1005.1
20260509004804 13 0 0.0 0.0 0.00 0.00 0.00 29 1005.2
20260509004704 13 0 0.0 1.6 0.00 0.00 0.00 29 1005.2
20260509004625 14 0 0.0 1.6 0.00 0.00 0.00 28 1005.2
20260509004504 14 0 0.0 1.6 0.00 0.00 0.00 28 1005.2
20260509004425 14 0 0.0 1.6 0.00 0.00 0.00 28 1005.2
20260509004304 14 0 0.0 1.6 0.00 0.00 0.00 28 1005.2
20260509004204 14 0 0.0 1.6 0.00 0.00 0.00 28 1005.2
20260509004104 14 0 0.0 1.6 0.00 0.00 0.00 28 1005.2
20260509004025 14 0 0.0 1.6 0.00 0.00 0.00 28 1005.2
20260509003904 14 0 0.0 1.6 0.00 0.00 0.00 27 1005.2
20260509003804 14 0 0.0 1.6 0.00 0.00 0.00 27 1005.3
20260509003704 14 0 0.0 1.6 0.00 0.00 0.00 27 1005.3
20260509003604 14 0 0.0 1.6 0.00 0.00 0.00 27 1005.3
20260509003504 14 0 0.0 1.6 0.00 0.00 0.00 27 1005.3
20260509003404 14 0 0.0 1.6 0.00 0.00 0.00 27 1005.3
20260509003304 14 0 0.0 1.6 0.00 0.00 0.00 27 1005.3
20260509003204 14 0 0.0 1.6 0.00 0.00 0.00 27 1005.2
20260509003104 14 0 0.0 1.6 0.00 0.00 0.00 27 1005.2
20260509003004 14 0 0.0 1.6 0.00 0.00 0.00 27 1005.3
20260509002904 14 0 0.0 6.4 0.00 0.00 0.00 27 1005.3
20260509002804 14 0 0.0 6.4 0.00 0.00 0.00 27 1005.3
20260509002704 15 0 0.0 6.4 0.00 0.00 0.00 27 1005.3
20260509002604 15 0 0.0 6.4 0.00 0.00 0.00 26 1005.3
20260509002525 15 0 0.0 6.4 0.00 0.00 0.00 27 1005.3
20260509002404 15 0 0.0 6.4 0.00 0.00 0.00 26 1005.3
20260509002306 15 0 0.0 6.4 0.00 0.00 0.00 26 1005.3
20260509002204 15 0 0.0 6.4 0.00 0.00 0.00 27 1005.3
20260509002105 15 98 1.6 6.4 0.00 0.00 0.00 26 1005.3
20260509002025 15 96 1.6 6.4 0.00 0.00 0.00 26 1005.4
20260509001904 15 0 0.0 6.4 0.00 0.00 0.00 26 1005.4
20260509001804 15 0 0.0 6.4 0.00 0.00 0.00 26 1005.4
20260509001704 15 0 0.0 6.4 0.00 0.00 0.00 26 1005.5
20260509001604 15 0 0.0 6.4 0.00 0.00 0.00 26 1005.5
20260509001504 15 0 0.0 6.4 0.00 0.00 0.00 26 1005.5
20260509001404 15 0 0.0 6.4 0.00 0.00 0.00 26 1005.5
20260509001304 15 0 0.0 4.8 0.00 0.00 0.00 26 1005.5
20260509001204 15 0 0.0 4.8 0.00 0.00 0.00 26 1005.5
20260509001104 15 0 0.0 4.8 0.00 0.00 0.00 26 1005.5
20260509001004 15 0 0.0 3.2 0.00 0.00 0.00 25 1005.5
20260509000904 15 216 1.6 4.8 0.00 0.00 0.00 26 1005.5
20260509000804 15 210 1.6 8.0 0.00 0.00 0.00 26 1005.5
20260509000725 15 210 1.6 8.0 0.00 0.00 0.00 26 1005.5
20260509000604 15 209 1.6 8.0 0.00 0.00 0.00 26 1005.5
20260509000506 15 207 1.6 8.0 0.00 0.00 0.00 25 1005.5
20260509000425 15 205 1.6 8.0 0.00 0.00 0.00 25 1005.5
20260509000326 15 206 1.6 8.0 0.00 0.00 0.00 25 1005.5
20260509000204 15 206 1.6 8.0 0.00 0.00 0.00 24 1005.6
20260509000104 15 203 1.6 8.0 0.00 0.00 0.00 25 1005.6
20260509000004 15 202 1.6 8.0 0.00 0.00 0.00 24 1005.6
20260508235904 15 187 1.6 8.0 0.00 0.00 0.00 24 1005.6
20260508235825 15 185 1.6 6.4 0.00 0.00 0.00 24 1005.6
20260508235704 16 192 1.6 6.4 0.00 0.00 0.00 25 1005.6
20260508235604 16 205 1.6 6.4 0.00 0.00 0.00 25 1005.6
20260508235525 16 205 1.6 6.4 0.00 0.00 0.00 24 1005.6
20260508235404 16 201 1.6 9.7 0.00 0.00 0.00 25 1005.6
20260508235325 16 201 1.6 9.7 0.00 0.00 0.00 25 1005.6
20260508235225 16 206 3.2 9.7 0.00 0.00 0.00 24 1005.7
20260508235125 16 203 3.2 9.7 0.00 0.00 0.00 25 1005.7
20260508235004 16 206 3.2 12.9 0.00 0.00 0.00 25 1005.7
20260508234904 16 206 3.2 12.9 0.00 0.00 0.00 24 1005.8
20260508234804 16 203 3.2 12.9 0.00 0.00 0.00 24 1005.7
20260508234704 16 205 3.2 12.9 0.00 0.00 0.00 24 1005.7
20260508234603 16 202 3.2 12.9 0.00 0.00 0.00 24 1005.8
20260508234504 16 204 3.2 12.9 0.00 0.00 0.00 24 1005.8
20260508234425 16 210 3.2 12.9 0.00 0.00 0.00 23 1005.8
20260508234304 16 206 3.2 12.9 0.00 0.00 0.00 23 1005.9
20260508234204 16 207 3.2 12.9 0.00 0.00 0.00 23 1005.9
20260508234125 16 208 3.2 12.9 0.00 0.00 0.00 23 1005.8
20260508234004 16 203 3.2 11.3 0.00 0.00 0.00 23 1005.9
20260508233903 16 203 3.2 11.3 0.00 0.00 0.00 23 1005.9
20260508233804 16 204 3.2 11.3 0.00 0.00 0.00 24 1005.9
20260508233704 16 201 3.2 11.3 0.00 0.00 0.00 24 1005.9
20260508233604 16 196 3.2 11.3 0.00 0.00 0.00 24 1005.9
20260508233505 16 189 1.6 11.3 0.00 0.00 0.00 24 1005.9
20260508233404 16 182 1.6 11.3 0.00 0.00 0.00 25 1005.9
20260508233304 16 177 1.6 8.0 0.00 0.00 0.00 25 1005.9
20260508233204 16 175 1.6 8.0 0.00 0.00 0.00 25 1005.9
20260508233104 16 172 1.6 11.3 0.00 0.00 0.00 25 1005.9
20260508233004 16 181 3.2 11.3 0.00 0.00 0.00 26 1006.0
20260508232904 16 199 3.2 11.3 0.00 0.00 0.00 26 1006.0
20260508232804 16 210 3.2 11.3 0.00 0.00 0.00 26 1006.0
20260508232725 16 211 3.2 11.3 0.00 0.00 0.00 26 1006.0
20260508232625 16 212 3.2 11.3 0.00 0.00 0.00 26 1006.0
20260508232504 16 210 3.2 11.3 0.00 0.00 0.00 26 1006.0
20260508232403 16 210 3.2 11.3 0.00 0.00 0.00 26 1006.0
20260508232307 16 211 3.2 11.3 0.00 0.00 0.00 25 1006.0
20260508232225 16 210 3.2 11.3 0.00 0.00 0.00 25 1006.0
20260508232104 16 208 4.8 12.9 0.00 0.00 0.00 26 1006.0
20260508232025 16 205 4.8 12.9 0.00 0.00 0.00 25 1006.0
20260508231904 16 197 4.8 12.9 0.00 0.00 0.00 26 1006.0
20260508231804 16 189 4.8 12.9 0.00 0.00 0.00 25 1006.0
20260508231704 16 188 4.8 12.9 0.00 0.00 0.00 25 1006.0
20260508231604 16 192 3.2 12.9 0.00 0.00 0.00 25 1006.0
20260508231504 16 192 4.8 12.9 0.00 0.00 0.00 25 1006.0
20260508231404 16 191 3.2 12.9 0.00 0.00 0.00 25 1006.0
20260508231304 16 188 3.2 12.9 0.00 0.00 0.00 25 1006.1
20260508231203 17 190 3.2 12.9 0.00 0.00 0.00 25 1006.0
20260508231124 17 190 3.2 11.3 0.00 0.00 0.00 25 1006.0
20260508231004 17 200 3.2 11.3 0.00 0.00 0.00 26 1006.1
20260508230904 17 200 1.6 11.3 0.00 0.00 0.00 25 1006.1
20260508230803 17 203 1.6 8.0 0.00 0.00 0.00 26 1006.1
20260508230703 17 203 1.6 8.0 0.00 0.00 0.00 26 1006.1
20260508230604 17 207 3.2 8.0 0.00 0.00 0.00 25 1006.1
20260508230504 17 217 3.2 8.0 0.00 0.00 0.00 26 1006.1
20260508230404 17 222 3.2 8.0 0.00 0.00 0.00 26 1006.1
20260508230304 16 215 3.2 8.0 0.00 0.00 0.00 26 1006.1
20260508230204 16 211 3.2 8.0 0.00 0.00 0.00 26 1006.2
20260508230104 16 218 3.2 9.7 0.00 0.00 0.00 26 1006.2
20260508230004 16 220 4.8 9.7 0.00 0.00 0.00 26 1006.2
20260508225903 16 223 4.8 11.3 0.00 0.00 0.00 26 1006.2
20260508225803 16 226 4.8 11.3 0.00 0.00 0.00 27 1006.2
20260508225704 16 229 4.8 11.3 0.00 0.00 0.00 26 1006.3
20260508225625 16 226 4.8 11.3 0.00 0.00 0.00 27 1006.3
20260508225504 16 223 4.8 11.3 0.00 0.00 0.00 27 1006.3
20260508225403 16 221 4.8 11.3 0.00 0.00 0.00 26 1006.4
20260508225306 16 226 4.8 11.3 0.00 0.00 0.00 27 1006.4
20260508225204 16 229 4.8 11.3 0.00 0.00 0.00 26 1006.4
20260508225104 16 227 4.8 11.3 0.00 0.00 0.00 26 1006.4
20260508225004 16 225 4.8 11.3 0.00 0.00 0.00 26 1006.3
20260508224904 16 219 4.8 11.3 0.00 0.00 0.00 26 1006.4
20260508224803 16 220 3.2 11.3 0.00 0.00 0.00 27 1006.4
20260508224725 16 212 3.2 11.3 0.00 0.00 0.00 28 1006.4
20260508224604 16 218 4.8 11.3 0.00 0.00 0.00 27 1006.4
20260508224504 16 216 4.8 11.3 0.00 0.00 0.00 27 1006.4
20260508224403 16 212 4.8 11.3 0.00 0.00 0.00 27 1006.3
20260508224303 16 204 4.8 11.3 0.00 0.00 0.00 27 1006.3
20260508224203 16 205 4.8 11.3 0.00 0.00 0.00 27 1006.4
20260508224125 16 206 4.8 11.3 0.00 0.00 0.00 27 1006.4
20260508224004 16 213 4.8 11.3 0.00 0.00 0.00 27 1006.4
20260508223904 16 217 4.8 11.3 0.00 0.00 0.00 27 1006.4
20260508223825 16 216 4.8 11.3 0.00 0.00 0.00 27 1006.4
20260508223704 16 217 4.8 11.3 0.00 0.00 0.00 27 1006.5
20260508223625 16 216 4.8 11.3 0.00 0.00 0.00 27 1006.5
20260508223504 16 212 4.8 11.3 0.00 0.00 0.00 27 1006.4
20260508223404 16 215 4.8 11.3 0.00 0.00 0.00 27 1006.5
20260508223324 16 215 4.8 11.3 0.00 0.00 0.00 27 1006.5
20260508223203 16 216 4.8 11.3 0.00 0.00 0.00 28 1006.6
20260508223103 16 218 4.8 11.3 0.00 0.00 0.00 27 1006.6
20260508223005 16 210 4.8 11.3 0.00 0.00 0.00 28 1006.6
20260508222925 15 209 4.8 11.3 0.00 0.00 0.00 27 1006.6
20260508222803 15 210 4.8 11.3 0.00 0.00 0.00 27 1006.6
20260508222704 16 205 4.8 11.3 0.00 0.00 0.00 27 1006.6
20260508222624 16 205 4.8 11.3 0.00 0.00 0.00 26 1006.6
20260508222504 16 211 4.8 11.3 0.00 0.00 0.00 26 1006.6
20260508222404 16 212 4.8 11.3 0.00 0.00 0.00 26 1006.6
20260508222306 16 216 3.2 11.3 0.00 0.00 0.00 27 1006.7
20260508222203 16 214 3.2 11.3 0.00 0.00 0.00 27 1006.7
20260508222104 16 213 4.8 11.3 0.00 0.00 0.00 27 1006.7
20260508222025 16 218 4.8 11.3 0.00 0.00 0.00 27 1006.7
20260508221904 16 229 4.8 14.5 0.00 0.00 0.00 27 1006.7
20260508221803 16 230 4.8 14.5 0.00 0.00 0.00 26 1006.7
20260508221704 16 230 4.8 14.5 0.00 0.00 0.00 26 1006.7
20260508221604 16 232 4.8 14.5 0.00 0.00 0.00 27 1006.7
20260508221525 16 234 4.8 14.5 0.00 0.00 0.00 27 1006.7
20260508221404 16 236 4.8 14.5 0.00 0.00 0.00 27 1006.7
20260508221303 16 234 4.8 14.5 0.00 0.00 0.00 27 1006.7
20260508221203 16 230 4.8 14.5 0.00 0.00 0.00 27 1006.7
20260508221104 16 225 4.8 14.5 0.00 0.00 0.00 26 1006.7
20260508221004 16 218 4.8 14.5 0.00 0.00 0.00 26 1006.7
20260508220925 16 214 4.8 11.3 0.00 0.00 0.00 26 1006.7
20260508220803 16 210 4.8 11.3 0.00 0.00 0.00 26 1006.8
20260508220703 16 212 4.8 11.3 0.00 0.00 0.00 26 1006.8
20260508220604 16 206 4.8 12.9 0.00 0.00 0.00 26 1006.8
20260508220504 16 198 4.8 12.9 0.00 0.00 0.00 25 1006.8
20260508220404 16 195 4.8 12.9 0.00 0.00 0.00 25 1006.8
20260508220304 16 189 3.2 12.9 0.00 0.00 0.00 25 1006.8
20260508220204 16 186 3.2 12.9 0.00 0.00 0.00 26 1006.8
20260508220104 16 191 3.2 12.9 0.00 0.00 0.00 26 1006.8
20260508220004 16 194 3.2 12.9 0.00 0.00 0.00 26 1006.8
20260508215904 16 204 4.8 12.9 0.00 0.00 0.00 26 1006.9
20260508215803 16 211 4.8 12.9 0.00 0.00 0.00 25 1006.9
20260508215703 16 215 4.8 12.9 0.00 0.00 0.00 26 1006.9
20260508215604 16 219 3.2 9.7 0.00 0.00 0.00 26 1006.8
20260508215503 16 220 4.8 9.7 0.00 0.00 0.00 27 1006.8
20260508215403 16 216 4.8 9.7 0.00 0.00 0.00 26 1006.8
20260508215306 16 215 4.8 9.7 0.00 0.00 0.00 26 1006.8
20260508215203 16 217 4.8 9.7 0.00 0.00 0.00 27 1006.8
20260508215103 16 214 4.8 9.7 0.00 0.00 0.00 27 1006.8
20260508215003 16 212 4.8 9.7 0.00 0.00 0.00 27 1006.8
20260508214903 16 203 4.8 9.7 0.00 0.00 0.00 28 1006.8
20260508214804 16 207 4.8 14.5 0.00 0.00 0.00 27 1006.8
20260508214704 16 214 6.4 14.5 0.00 0.00 0.00 27 1006.8
20260508214604 16 220 6.4 14.5 0.00 0.00 0.00 26 1006.8
20260508214504 16 226 6.4 16.1 0.00 0.00 0.00 26 1006.8
20260508214403 16 230 6.4 16.1 0.00 0.00 0.00 27 1006.8
20260508214324 16 235 6.4 16.1 0.00 0.00 0.00 27 1006.8
20260508214204 16 242 8.0 16.1 0.00 0.00 0.00 27 1006.8
20260508214104 15 244 6.4 16.1 0.00 0.00 0.00 28 1006.8
20260508214003 15 246 6.4 16.1 0.00 0.00 0.00 28 1006.8
20260508213903 15 247 6.4 16.1 0.00 0.00 0.00 28 1006.8
20260508213803 15 245 6.4 16.1 0.00 0.00 0.00 28 1006.9
20260508213704 15 244 6.4 16.1 0.00 0.00 0.00 27 1006.9
20260508213603 16 244 6.4 16.1 0.00 0.00 0.00 27 1006.8
20260508213504 16 246 6.4 14.5 0.00 0.00 0.00 27 1006.8
20260508213403 16 247 6.4 14.5 0.00 0.00 0.00 28 1006.9
20260508213303 16 244 6.4 14.5 0.00 0.00 0.00 27 1006.9
20260508213204 16 245 8.0 16.1 0.00 0.00 0.00 28 1006.9
20260508213104 15 248 8.0 16.1 0.00 0.00 0.00 29 1006.9
20260508213004 15 249 8.0 16.1 0.00 0.00 0.00 29 1006.9
20260508212903 15 252 8.0 16.1 0.00 0.00 0.00 28 1006.9
20260508212803 15 252 8.0 16.1 0.00 0.00 0.00 28 1006.9
20260508212704 15 252 8.0 16.1 0.00 0.00 0.00 27 1006.9
20260508212625 15 254 8.0 16.1 0.00 0.00 0.00 27 1006.9
20260508212503 15 252 6.4 16.1 0.00 0.00 0.00 29 1006.9
20260508212403 15 250 6.4 16.1 0.00 0.00 0.00 28 1006.9
20260508212306 15 249 6.4 16.1 0.00 0.00 0.00 28 1007.0
20260508212204 15 246 4.8 16.1 0.00 0.00 0.00 27 1007.0
20260508212103 16 234 4.8 14.5 0.00 0.00 0.00 27 1007.0
20260508212003 16 225 4.8 14.5 0.00 0.00 0.00 27 1006.9
20260508211903 16 213 4.8 12.9 0.00 0.00 0.00 27 1006.9
20260508211804 16 204 4.8 9.7 0.00 0.00 0.00 27 1007.0
20260508211705 16 202 4.8 14.5 0.00 0.00 0.00 28 1007.0
20260508211624 16 198 4.8 14.5 0.00 0.00 0.00 28 1007.0
20260508211503 16 200 4.8 14.5 0.00 0.00 0.00 28 1007.0
20260508211403 16 201 4.8 14.5 0.00 0.00 0.00 28 1007.0
20260508211325 16 200 4.8 14.5 0.00 0.00 0.00 27 1007.1
20260508211203 16 204 4.8 14.5 0.00 0.00 0.00 26 1007.1
20260508211103 16 213 4.8 16.1 0.00 0.00 0.00 27 1007.1
20260508211003 16 226 4.8 16.1 0.00 0.00 0.00 28 1007.1
20260508210903 16 229 4.8 16.1 0.00 0.00 0.00 28 1007.1
20260508210804 16 234 4.8 16.1 0.00 0.00 0.00 27 1007.2
20260508210704 16 233 4.8 16.1 0.00 0.00 0.00 27 1007.1
20260508210624 16 232 4.8 16.1 0.00 0.00 0.00 28 1007.1
20260508210503 16 236 6.4 16.1 0.00 0.00 0.00 29 1007.2
20260508210404 16 239 6.4 16.1 0.00 0.00 0.00 29 1007.2
20260508210325 16 240 6.4 16.1 0.00 0.00 0.00 29 1007.2
20260508210203 16 238 6.4 16.1 0.00 0.00 0.00 29 1007.2
20260508210103 16 238 6.4 16.1 0.00 0.00 0.00 28 1007.2
20260508210003 16 232 4.8 16.1 0.00 0.00 0.00 29 1007.2
20260508205903 16 229 6.4 16.1 0.00 0.00 0.00 30 1007.2
20260508205803 15 220 6.4 16.1 0.00 0.00 0.00 28 1007.3
20260508205724 15 218 6.4 16.1 0.00 0.00 0.00 28 1007.3
20260508205603 15 229 6.4 16.1 0.00 0.00 0.00 28 1007.3
20260508205503 16 226 4.8 16.1 0.00 0.00 0.00 29 1007.2
20260508205404 16 222 4.8 14.5 0.00 0.00 0.00 28 1007.2
20260508205306 16 225 6.4 14.5 0.00 0.00 0.00 27 1007.4
20260508205203 16 230 6.4 14.5 0.00 0.00 0.00 29 1007.4
20260508205103 15 229 6.4 14.5 0.00 0.00 0.00 30 1007.4
20260508205003 15 232 6.4 19.3 0.00 0.00 0.00 30 1007.4
20260508204904 15 229 8.0 20.9 0.00 0.00 0.00 29 1007.4
20260508204804 15 236 8.0 20.9 0.00 0.00 0.00 30 1007.4
20260508204725 15 238 8.0 20.9 0.00 0.00 0.00 30 1007.4
20260508204603 15 235 6.4 20.9 0.00 0.00 0.00 32 1007.4
20260508204524 15 235 6.4 20.9 0.00 0.00 0.00 32 1007.4
20260508204404 15 235 8.0 20.9 0.00 0.00 0.00 31 1007.4
20260508204303 15 236 8.0 20.9 0.00 0.00 0.00 30 1007.4
20260508204203 15 239 8.0 20.9 0.00 0.00 0.00 30 1007.5
20260508204103 15 244 9.7 20.9 0.00 0.00 0.00 31 1007.5
20260508204003 15 246 9.7 20.9 0.00 0.00 0.00 30 1007.5
20260508203904 15 249 9.7 19.3 0.00 0.00 0.00 31 1007.5
20260508203804 15 249 9.7 19.3 0.00 0.00 0.00 31 1007.5
20260508203724 15 251 9.7 19.3 0.00 0.00 0.00 30 1007.6
20260508203604 15 253 9.7 19.3 0.00 0.00 0.00 32 1007.6
20260508203503 15 253 9.7 19.3 0.00 0.00 0.00 33 1007.6
20260508203404 15 255 11.3 19.3 0.00 0.00 0.00 33 1007.6
20260508203303 15 256 9.7 19.3 0.00 0.00 0.00 31 1007.6
20260508203224 15 255 9.7 19.3 0.00 0.00 0.00 32 1007.6
20260508203103 15 254 9.7 19.3 0.00 0.00 0.00 31 1007.6
20260508203003 15 253 9.7 19.3 0.00 0.00 0.00 32 1007.6
20260508202904 15 255 9.7 19.3 0.00 0.00 0.00 33 1007.7
20260508202804 15 256 9.7 19.3 0.00 0.00 0.00 32 1007.7
20260508202703 15 256 9.7 19.3 0.00 0.00 0.00 32 1007.7
20260508202603 15 255 9.7 19.3 0.00 0.00 0.00 29 1007.7
20260508202524 15 254 9.7 19.3 0.00 0.00 0.00 31 1007.7
20260508202403 15 251 9.7 19.3 0.00 0.00 0.00 33 1007.7
20260508202306 15 249 8.0 19.3 0.00 0.00 0.00 32 1007.7
20260508202204 15 250 8.0 19.3 0.00 0.00 0.00 32 1007.7
20260508202124 15 249 8.0 19.3 0.00 0.00 0.00 32 1007.7
20260508202003 15 249 6.4 19.3 0.00 0.00 0.00 32 1007.7
20260508201924 15 247 6.4 19.3 0.00 0.00 0.00 33 1007.7
20260508201803 15 243 6.4 17.7 0.00 0.00 0.00 32 1007.7
20260508201703 15 234 6.4 14.5 0.00 0.00 0.00 32 1007.7
20260508201603 15 235 6.4 14.5 0.00 0.00 0.00 33 1007.7
20260508201503 15 237 6.4 14.5 0.00 0.00 0.00 33 1007.7
20260508201403 15 231 6.4 14.5 0.00 0.00 0.00 32 1007.7
20260508201303 15 226 6.4 14.5 0.00 0.00 0.00 33 1007.8
20260508201204 15 225 6.4 14.5 0.00 0.00 0.00 33 1007.8
20260508201103 15 225 6.4 14.5 0.00 0.00 0.00 34 1007.8
20260508201003 15 226 8.0 14.5 0.00 0.00 0.00 35 1007.8
20260508200924 15 230 8.0 19.3 0.00 0.00 0.00 33 1007.8
20260508200803 15 228 8.0 19.3 0.00 0.00 0.00 34 1007.8
20260508200704 15 229 8.0 19.3 0.00 0.00 0.00 34 1007.8
20260508200603 15 225 8.0 19.3 0.00 0.00 0.00 35 1007.9
20260508200503 15 224 6.4 19.3 0.00 0.00 0.00 33 1007.9
20260508200403 15 234 8.0 19.3 0.00 0.00 0.00 33 1007.9
20260508200324 15 237 8.0 19.3 0.00 0.00 0.00 35 1007.9
20260508200203 15 241 8.0 19.3 0.00 0.00 0.00 36 1007.9
20260508200103 15 238 8.0 19.3 0.00 0.00 0.00 35 1007.9
20260508200003 15 236 6.4 19.3 0.00 0.00 0.00 34 1007.9
20260508195903 15 231 6.4 16.1 0.00 0.00 0.00 33 1007.9
20260508195804 15 232 6.4 16.1 0.00 0.00 0.00 35 1008.0
20260508195724 15 237 6.4 16.1 0.00 0.00 0.00 35 1008.0
20260508195603 15 241 6.4 16.1 0.00 0.00 0.00 36 1008.0
20260508195503 15 241 6.4 16.1 0.00 0.00 0.00 35 1008.0
20260508195403 15 240 8.0 16.1 0.00 0.00 0.00 37 1008.0
20260508195306 15 240 6.4 19.3 0.00 0.00 0.00 35 1008.0
20260508195203 15 239 8.0 19.3 0.00 0.00 0.00 35 1008.0
20260508195124 15 241 8.0 19.3 0.00 0.00 0.00 35 1008.0
20260508195003 15 244 8.0 19.3 0.00 0.00 0.00 36 1008.1
20260508194903 15 244 8.0 19.3 0.00 0.00 0.00 35 1008.1
20260508194803 15 246 8.0 19.3 0.00 0.00 0.00 35 1008.1
20260508194703 15 249 8.0 19.3 0.00 0.00 0.00 34 1008.1
20260508194603 15 250 8.0 20.9 0.00 0.00 0.00 34 1008.1
20260508194503 15 250 8.0 20.9 0.00 0.00 0.00 34 1008.1
20260508194407 15 248 8.0 20.9 0.00 0.00 0.00 33 1008.1
20260508194306 15 246 8.0 20.9 0.00 0.00 0.00 34 1008.2
20260508194206 15 247 8.0 20.9 0.00 0.00 0.00 35 1008.2
20260508194106 15 247 8.0 20.9 0.00 0.00 0.00 35 1008.2
20260508194007 15 245 8.0 20.9 0.00 0.00 0.00 35 1008.3
20260508193907 15 246 9.7 20.9 0.00 0.00 0.00 34 1008.3
20260508193806 15 246 8.0 20.9 0.00 0.00 0.00 34 1008.3
20260508193707 15 241 8.0 20.9 0.00 0.00 0.00 34 1008.4
20260508193627 15 242 8.0 19.3 0.00 0.00 0.00 35 1008.4
20260508193506 15 242 8.0 19.3 0.00 0.00 0.00 35 1008.4
20260508193406 15 244 8.0 19.3 0.00 0.00 0.00 35 1008.4
20260508193307 15 243 6.4 19.3 0.00 0.00 0.00 35 1008.3
20260508193206 15 237 6.4 19.3 0.00 0.00 0.00 34 1008.4
20260508193106 15 232 6.4 19.3 0.00 0.00 0.00 34 1008.4
20260508193006 15 229 6.4 19.3 0.00 0.00 0.00 35 1008.4
20260508192906 15 226 6.4 19.3 0.00 0.00 0.00 34 1008.4
20260508192806 15 225 6.4 19.3 0.00 0.00 0.00 35 1008.4
20260508192706 15 224 4.8 19.3 0.00 0.00 0.00 34 1008.4
20260508192606 15 223 6.4 12.9 0.00 0.00 0.00 35 1008.4
20260508192506 15 228 6.4 17.7 0.00 0.00 0.00 35 1008.4
20260508192427 15 225 6.4 17.7 0.00 0.00 0.00 35 1008.4
20260508192306 15 231 6.4 17.7 0.00 0.00 0.00 34 1008.4
20260508192206 15 231 6.4 17.7 0.00 0.00 0.00 34 1008.4
20260508192106 15 236 4.8 17.7 0.00 0.00 0.00 36 1008.4
20260508192027 15 240 4.8 17.7 0.00 0.00 0.00 38 1008.4
20260508191906 15 244 6.4 17.7 0.00 0.00 0.00 37 1008.4
20260508191806 15 246 6.4 17.7 0.00 0.00 0.00 36 1008.4
20260508191707 15 250 8.0 17.7 0.00 0.00 0.00 35 1008.4
20260508191607 15 251 8.0 17.7 0.00 0.00 0.00 34 1008.4
20260508191507 15 250 8.0 19.3 0.00 0.00 0.00 35 1008.4
20260508191406 15 253 8.0 19.3 0.00 0.00 0.00 35 1008.4
20260508191306 15 256 8.0 19.3 0.00 0.00 0.00 36 1008.4
20260508191207 15 259 8.0 19.3 0.00 0.00 0.00 36 1008.4
20260508191106 15 261 9.7 19.3 0.00 0.00 0.00 36 1008.4
20260508191006 15 261 9.7 19.3 0.00 0.00 0.00 36 1008.5
20260508190906 14 260 9.7 19.3 0.00 0.00 0.00 35 1008.4
20260508190806 14 261 9.7 19.3 0.00 0.00 0.00 34 1008.4
20260508190706 14 261 8.0 19.3 0.00 0.00 0.00 34 1008.5
20260508190628 15 260 8.0 19.3 0.00 0.00 0.00 34 1008.5
20260508190528 15 259 8.0 19.3 0.00 0.00 0.00 35 1008.5
20260508190406 15 257 8.0 19.3 0.00 0.00 0.00 37 1008.5
20260508190306 15 252 6.4 19.3 0.00 0.00 0.00 37 1008.5
20260508190228 15 251 6.4 17.7 0.00 0.00 0.00 34 1008.5
20260508190107 15 251 8.0 17.7 0.00 0.00 0.00 37 1008.5
20260508190007 15 250 8.0 17.7 0.00 0.00 0.00 37 1008.5
20260508185927 15 248 8.0 17.7 0.00 0.00 0.00 37 1008.5
20260508185806 15 247 6.4 17.7 0.00 0.00 0.00 37 1008.5
20260508185706 15 241 6.4 17.7 0.00 0.00 0.00 37 1008.6
20260508185606 15 242 6.4 17.7 0.00 0.00 0.00 37 1008.6
20260508185507 15 238 6.4 17.7 0.00 0.00 0.00 35 1008.6
20260508185406 15 236 8.0 17.7 0.00 0.00 0.00 37 1008.6
20260508185328 15 238 8.0 17.7 0.00 0.00 0.00 37 1008.6
20260508185206 15 236 8.0 17.7 0.00 0.00 0.00 35 1008.6
20260508185128 15 236 8.0 17.7 0.00 0.00 0.00 35 1008.6
20260508185006 15 230 6.4 17.7 0.00 0.00 0.00 34 1008.6
20260508184906 15 229 6.4 17.7 0.00 0.00 0.00 36 1008.6
20260508184807 15 230 6.4 17.7 0.00 0.00 0.00 36 1008.6
20260508184707 15 229 6.4 17.7 0.00 0.00 0.00 36 1008.6
20260508184606 15 225 8.0 17.7 0.00 0.00 0.00 35 1008.6
20260508184506 15 231 6.4 17.7 0.00 0.00 0.00 35 1008.6
20260508184406 15 233 8.0 17.7 0.00 0.00 0.00 35 1008.6
20260508184307 15 237 6.4 17.7 0.00 0.00 0.00 34 1008.6
20260508184207 15 235 6.4 17.7 0.00 0.00 0.00 35 1008.6
20260508184106 15 229 6.4 17.7 0.00 0.00 0.00 35 1008.6
20260508184006 15 228 6.4 17.7 0.00 0.00 0.00 35 1008.6
20260508183906 15 230 6.4 17.7 0.00 0.00 0.00 35 1008.6
20260508183827 15 223 6.4 17.7 0.00 0.00 0.00 35 1008.6
20260508183706 15 229 6.4 17.7 0.00 0.00 0.00 34 1008.7
20260508183606 15 239 6.4 17.7 0.00 0.00 0.00 34 1008.6
20260508183506 15 240 6.4 17.7 0.00 0.00 0.00 34 1008.6
20260508183406 15 242 6.4 17.7 0.00 0.00 0.00 33 1008.6
20260508183306 15 238 6.4 16.1 0.00 0.00 0.00 35 1008.6
20260508183206 15 239 6.4 16.1 0.00 0.00 0.00 34 1008.6
20260508183106 15 245 6.4 16.1 0.00 0.00 0.00 34 1008.6
20260508183006 15 246 6.4 16.1 0.00 0.00 0.00 34 1008.6
20260508182928 15 247 6.4 16.1 0.00 0.00 0.00 32 1008.7
20260508182806 15 256 6.4 16.1 0.00 0.00 0.00 35 1008.7
20260508182706 15 257 6.4 16.1 0.00 0.00 0.00 36 1008.7
20260508182606 15 256 6.4 16.1 0.00 0.00 0.00 35 1008.8
20260508182506 15 253 6.4 16.1 0.00 0.00 0.00 35 1008.8
20260508182407 15 252 6.4 16.1 0.00 0.00 0.00 35 1008.8
20260508182307 15 251 6.4 16.1 0.00 0.00 0.00 35 1008.7
20260508182206 15 251 6.4 16.1 0.00 0.00 0.00 35 1008.7
20260508182127 15 247 6.4 16.1 0.00 0.00 0.00 34 1008.7
20260508182006 15 246 6.4 16.1 0.00 0.00 0.00 33 1008.8
20260508181906 15 243 6.4 16.1 0.00 0.00 0.00 33 1008.8
20260508181806 15 240 6.4 16.1 0.00 0.00 0.00 34 1008.8
20260508181706 14 241 6.4 16.1 0.00 0.00 0.00 34 1008.8
20260508181606 15 244 6.4 16.1 0.00 0.00 0.00 33 1008.8
20260508181506 15 245 8.0 16.1 0.00 0.00 0.00 33 1008.9
20260508181407 15 247 8.0 17.7 0.00 0.00 0.00 32 1008.9
20260508181328 15 248 8.0 17.7 0.00 0.00 0.00 32 1008.8
20260508181207 15 249 8.0 17.7 0.00 0.00 0.00 34 1008.8
20260508181106 15 252 8.0 17.7 0.00 0.00 0.00 34 1008.8
20260508181027 15 252 8.0 20.9 0.00 0.00 0.00 33 1008.8
20260508180906 15 252 9.7 20.9 0.00 0.00 0.00 33 1008.9
20260508180806 15 253 8.0 20.9 0.00 0.00 0.00 33 1008.9
20260508180706 15 254 8.0 20.9 0.00 0.00 0.00 33 1008.9
20260508180606 15 254 8.0 20.9 0.00 0.00 0.00 32 1008.9
20260508180506 15 255 8.0 20.9 0.00 0.00 0.00 32 1009.0
20260508180427 15 256 8.0 20.9 0.00 0.00 0.00 33 1009.0
20260508180307 15 262 8.0 20.9 0.00 0.00 0.00 34 1009.0
20260508180206 15 263 8.0 20.9 0.00 0.00 0.00 32 1009.0
20260508180127 15 261 8.0 20.9 0.00 0.00 0.00 32 1009.0
20260508180006 15 266 6.4 16.1 0.00 0.00 0.00 33 1009.0
20260508175906 15 266 6.4 16.1 0.00 0.00 0.00 32 1009.0
20260508175807 15 263 6.4 14.5 0.00 0.00 0.00 32 1009.1
20260508175706 15 258 6.4 14.5 0.00 0.00 0.00 31 1009.1
20260508175606 15 252 6.4 14.5 0.00 0.00 0.00 32 1009.1
20260508175506 15 243 6.4 16.1 0.00 0.00 0.00 31 1009.1
20260508175406 15 237 6.4 16.1 0.00 0.00 0.00 30 1009.1
20260508175306 15 230 4.8 16.1 0.00 0.00 0.00 31 1009.1
20260508175227 15 226 4.8 16.1 0.00 0.00 0.00 30 1009.1
20260508175106 15 220 4.8 16.1 0.00 0.00 0.00 32 1009.2
20260508175006 15 214 4.8 16.1 0.00 0.00 0.00 31 1009.2
20260508174906 15 211 4.8 16.1 0.00 0.00 0.00 31 1009.2
20260508174806 15 220 4.8 16.1 0.00 0.00 0.00 32 1009.2
20260508174706 15 227 6.4 16.1 0.00 0.00 0.00 32 1009.2
20260508174606 15 234 6.4 17.7 0.00 0.00 0.00 32 1009.2
20260508174506 15 240 6.4 17.7 0.00 0.00 0.00 32 1009.3
20260508174406 15 242 6.4 17.7 0.00 0.00 0.00 32 1009.3
20260508174306 15 244 6.4 17.7 0.00 0.00 0.00 32 1009.3
20260508174206 15 248 6.4 17.7 0.00 0.00 0.00 33 1009.3
20260508174106 15 251 6.4 17.7 0.00 0.00 0.00 33 1009.3
20260508174006 15 255 6.4 17.7 0.00 0.00 0.00 33 1009.3
20260508173906 15 258 6.4 17.7 0.00 0.00 0.00 31 1009.3
20260508173806 15 257 6.4 17.7 0.00 0.00 0.00 31 1009.3
20260508173706 15 256 6.4 17.7 0.00 0.00 0.00 32 1009.3
20260508173606 15 253 4.8 17.7 0.00 0.00 0.00 33 1009.4
20260508173506 15 249 4.8 17.7 0.00 0.00 0.00 33 1009.4
20260508173406 15 249 4.8 17.7 0.00 0.00 0.00 33 1009.4
20260508173306 15 248 4.8 17.7 0.00 0.00 0.00 32 1009.4
20260508173206 15 244 4.8 17.7 0.00 0.00 0.00 32 1009.4
20260508173106 15 242 4.8 12.9 0.00 0.00 0.00 32 1009.5
20260508173027 15 243 4.8 12.9 0.00 0.00 0.00 31 1009.5
20260508172927 15 239 4.8 12.9 0.00 0.00 0.00 33 1009.4
20260508172827 15 239 4.8 16.1 0.00 0.00 0.00 32 1009.4
20260508172706 15 237 4.8 16.1 0.00 0.00 0.00 32 1009.5
20260508172606 15 239 4.8 16.1 0.00 0.00 0.00 33 1009.5
20260508172506 15 239 4.8 16.1 0.00 0.00 0.00 32 1009.5
20260508172406 15 237 4.8 16.1 0.00 0.00 0.00 33 1009.5
20260508172307 15 236 4.8 16.1 0.00 0.00 0.00 33 1009.5
20260508172206 14 235 4.8 16.1 0.00 0.00 0.00 33 1009.5
20260508172106 14 232 6.4 16.1 0.00 0.00 0.00 33 1009.5
20260508172006 14 233 6.4 16.1 0.00 0.00 0.00 32 1009.5
20260508171907 15 239 6.4 16.1 0.00 0.00 0.00 30 1009.5
20260508171806 15 239 6.4 16.1 0.00 0.00 0.00 30 1009.6
20260508171706 15 242 4.8 16.1 0.00 0.00 0.00 30 1009.6
20260508171606 15 246 6.4 16.1 0.00 0.00 0.00 30 1009.6
20260508171506 15 250 4.8 16.1 0.00 0.00 0.00 31 1009.6
20260508171406 15 253 6.4 16.1 0.00 0.00 0.00 31 1009.6
20260508171306 15 253 6.4 16.1 0.00 0.00 0.00 31 1009.6
20260508171206 14 257 6.4 16.1 0.00 0.00 0.00 31 1009.6
20260508171106 14 259 6.4 16.1 0.00 0.00 0.00 33 1009.6
20260508171006 14 258 6.4 19.3 0.00 0.00 0.00 33 1009.6
20260508170906 14 255 6.4 19.3 0.00 0.00 0.00 30 1009.7
20260508170806 15 258 8.0 19.3 0.00 0.00 0.00 31 1009.7
20260508170707 15 257 8.0 19.3 0.00 0.00 0.00 31 1009.7
20260508170606 15 257 8.0 19.3 0.00 0.00 0.00 32 1009.7
20260508170506 15 257 9.7 19.3 0.00 0.00 0.00 33 1009.7
20260508170406 15 258 9.7 19.3 0.00 0.00 0.00 33 1009.7
20260508170306 15 257 9.7 19.3 0.00 0.00 0.00 32 1009.8
20260508170227 15 255 9.7 19.3 0.00 0.00 0.00 32 1009.8
20260508170107 15 253 8.0 19.3 0.00 0.00 0.00 31 1009.8
20260508170006 15 248 8.0 19.3 0.00 0.00 0.00 33 1009.9
20260508165906 15 247 8.0 19.3 0.00 0.00 0.00 32 1009.9
20260508165806 15 245 8.0 19.3 0.00 0.00 0.00 32 1009.9
20260508165728 15 244 8.0 19.3 0.00 0.00 0.00 32 1009.9
20260508165607 15 241 6.4 17.7 0.00 0.00 0.00 29 1009.9
20260508165506 15 235 6.4 14.5 0.00 0.00 0.00 32 1009.9
20260508165427 15 235 6.4 14.5 0.00 0.00 0.00 33 1009.9
20260508165307 15 240 6.4 14.5 0.00 0.00 0.00 33 1010.0
20260508165206 15 246 6.4 14.5 0.00 0.00 0.00 33 1010.0
20260508165127 15 247 6.4 14.5 0.00 0.00 0.00 33 1010.1
20260508165027 15 250 6.4 14.5 0.00 0.00 0.00 34 1010.1
20260508164906 15 254 6.4 14.5 0.00 0.00 0.00 33 1010.1
20260508164806 15 254 6.4 14.5 0.00 0.00 0.00 35 1010.2
20260508164706 14 254 8.0 17.7 0.00 0.00 0.00 35 1010.2
20260508164606 14 254 8.0 17.7 0.00 0.00 0.00 35 1010.2
20260508164506 14 257 8.0 17.7 0.00 0.00 0.00 33 1010.2
20260508164406 14 253 6.4 17.7 0.00 0.00 0.00 33 1010.2
20260508164306 15 252 6.4 17.7 0.00 0.00 0.00 34 1010.2
20260508164206 15 251 6.4 17.7 0.00 0.00 0.00 35 1010.2
20260508164106 14 251 8.0 17.7 0.00 0.00 0.00 35 1010.2
20260508164006 14 250 6.4 17.7 0.00 0.00 0.00 37 1010.2
20260508163906 14 251 6.4 17.7 0.00 0.00 0.00 37 1010.2
20260508163827 14 251 6.4 17.7 0.00 0.00 0.00 37 1010.2
20260508163706 14 253 6.4 17.7 0.00 0.00 0.00 35 1010.2
20260508163606 14 252 6.4 17.7 0.00 0.00 0.00 33 1010.2
20260508163527 14 251 6.4 17.7 0.00 0.00 0.00 34 1010.2
20260508163407 14 246 6.4 17.7 0.00 0.00 0.00 34 1010.2
20260508163306 15 244 6.4 17.7 0.00 0.00 0.00 33 1010.2
20260508163206 14 242 6.4 17.7 0.00 0.00 0.00 31 1010.2
20260508163106 15 242 6.4 17.7 0.00 0.00 0.00 32 1010.2
20260508163006 15 240 6.4 16.1 0.00 0.00 0.00 34 1010.3
20260508162927 15 237 6.4 16.1 0.00 0.00 0.00 36 1010.3
20260508162806 14 233 6.4 16.1 0.00 0.00 0.00 37 1010.2
20260508162706 14 233 6.4 16.1 0.00 0.00 0.00 37 1010.2
20260508162606 14 230 6.4 16.1 0.00 0.00 0.00 34 1010.2
20260508162506 14 229 6.4 16.1 0.00 0.00 0.00 33 1010.2
20260508162406 14 231 6.4 16.1 0.00 0.00 0.00 37 1010.2
20260508162307 14 230 6.4 16.1 0.00 0.00 0.00 36 1010.2
20260508162227 14 228 6.4 16.1 0.00 0.00 0.00 37 1010.2